GFSNE_sfc_temp_000.txt.gz
Temp
65 65 65 66 66 65 64 63 59 54 56 61 59 62 65 65 62 60 56 57 59 60 61 62 59 57 56 56 55 55 54 53 53 53 53 53 54 55
67 66 66 66 66 65 63 63 62 58 54 62 62 58 60 59 56 54 54 54 57 59 59 58 56 55 54 54 53 52 52 51 51 51 52 53 53 53
66 65 65 66 65 64 63 63 61 60 56 60 63 61 52 50 50 50 51 51 53 57 57 55 54 53 52 52 51 50 49 49 49 50 50 51 52 52
64 64 65 66 64 64 63 62 61 62 58 56 60 58 51 48 49 47 49 52 50 54 54 53 52 51 51 50 49 48 48 47 47 47 48 48 49 50
63 63 64 64 63 64 63 62 62 61 60 57 57 59 50 48 46 47 46 48 49 51 53 52 51 50 49 48 48 48 47 46 46 46 46 46 48 50
61 61 62 62 63 64 63 61 60 59 59 57 57 56 46 45 46 45 42 45 44 48 49 48 48 48 48 47 47 47 46 45 45 45 45 46 47 48
59 60 60 59 55 58 61 61 60 58 58 56 55 51 44 41 42 44 44 43 43 43 42 42 39 38 39 45 45 45 45 45 44 45 45 47 47 47
55 57 59 55 57 57 56 55 58 58 57 57 55 52 50 49 45 44 43 38 36 40 37 36 37 34 36 36 44 46 45 45 44 44 45 46 45 45
54 55 56 58 55 57 58 56 54 55 55 57 55 54 53 51 47 43 43 40 36 35 36 33 34 32 34 41 45 46 46 45 44 43 44 44 44 44
52 53 55 55 56 56 56 55 57 57 56 55 56 56 56 54 49 47 43 35 33 34 35 30 32 31 34 35 45 46 45 45 44 43 43 43 43 43
53 54 54 53 53 53 51 52 54 55 47 49 51 52 52 50 47 40 35 34 30 32 34 32 30 31 32 33 34 43 44 43 42 42 43 43 43 42
49 49 50 50 51 51 50 49 49 52 42 40 41 44 45 45 45 43 37 35 31 30 33 31 29 30 27 32 31 32 32 42 43 43 43 43 43 34
44 46 48 49 48 49 48 47 47 51 43 39 37 35 35 34 35 35 36 36 31 31 33 30 24 26 27 25 29 29 28 29 29 31 40 42 42 39
42 44 46 46 46 46 47 48 48 48 38 35 33 33 32 32 32 33 33 32 33 32 36 27 23 23 18 22 22 27 25 27 27 28 29 36 40 42
43 44 45 45 45 46 46 47 47 40 36 33 33 32 32 32 32 31 31 31 31 32 31 27 24 21 20 18 19 19 24 26 28 28 26 27 28 29
43 44 45 46 47 45 45 44 37 36 35 35 33 32 32 30 29 30 28 28 27 27 30 27 26 20 16 18 19 20 21 21 24 25 26 27 28 29
43 43 41 40 40 40 37 34 34 35 33 32 31 30 30 30 28 29 28 28 28 25 24 25 24 23 22 19 23 24 23 23 24 25 25 26 28 28
41 39 37 36 36 36 34 32 32 32 31 31 30 29 29 28 28 28 28 28 27 25 23 18 17 17 16 21 29 23 22 23 24 25 25 24 25 28
37 36 35 34 34 35 33 32 31 30 30 29 29 29 28 28 28 27 28 28 25 22 18 14 11 9 6 9 20 34 24 25 25 24 25 24 24 27
35 34 34 34 33 33 33 32 29 29 29 29 29 28 28 27 27 26 27 24 23 18 16 12 9 5 12 9 15 18 29 23 24 23 24 26 28 33
33 34 34 34 33 33 32 30 30 29 29 28 28 28 28 27 27 27 26 29 26 19 14 11 11 25 5 6 9 16 23 32 30 25 26 25 26 27
33 33 34 34 33 32 31 29 29 30 28 28 28 28 28 28 28 26 25 23 22 18 12 9 9 8 6 9 13 16 19 24 30 33 33 31 27 22
32 33 33 33 33 33 30 29 29 28 28 28 28 28 28 27 27 26 24 24 21 16 15 13 11 8 11 12 22 20 20 23 26 27 28 33 33 34

GFSNE_sfc_temp_003.txt.gz
Temp
65 65 64 65 64 65 64 63 58 53 56 62 60 61 63 64 64 64 63 62 61 63 64 64 64 63 62 61 61 60 59 58 57 56 55 54 54 55
63 62 63 64 63 63 63 63 61 57 53 62 63 63 58 59 60 61 61 57 58 61 61 61 61 59 58 58 58 57 56 55 55 54 54 54 53 54
61 60 61 62 62 62 62 62 60 59 55 60 63 64 54 57 53 54 55 55 55 58 60 59 58 57 56 56 56 55 54 54 53 53 52 52 53 53
59 59 59 61 59 61 60 60 61 60 58 56 60 60 55 52 55 51 52 53 52 55 58 58 57 55 55 54 54 53 52 52 51 51 51 50 50 51
57 57 58 58 58 58 59 58 59 60 60 58 57 60 59 48 46 47 47 48 49 52 56 56 55 53 53 52 52 51 50 50 49 48 48 48 48 49
56 56 57 57 56 57 57 57 58 57 57 57 57 57 58 48 49 49 43 45 45 48 51 52 53 52 52 51 50 49 49 48 48 48 47 46 46 47
53 55 56 55 52 54 55 55 55 54 55 55 55 56 55 44 44 46 47 46 44 44 44 45 45 45 45 49 46 46 47 47 47 46 46 46 47 47
51 52 53 52 54 55 55 54 54 53 53 53 54 53 54 53 51 48 47 40 38 42 40 39 40 38 40 39 44 46 47 46 46 46 45 46 46 47
49 49 50 55 53 55 54 53 54 54 54 53 52 53 53 55 54 51 48 46 44 37 40 36 36 35 36 40 44 46 47 46 46 45 45 45 45 46
48 48 49 48 49 49 50 49 49 51 53 54 54 55 56 56 55 53 50 41 34 35 37 32 32 33 35 37 44 46 46 46 46 45 45 44 44 44
48 47 47 46 49 49 47 45 46 47 50 51 49 48 49 51 52 42 36 36 32 32 32 32 31 31 32 33 36 45 46 46 46 46 45 44 43 44
44 45 47 47 48 48 45 43 41 43 45 47 48 49 45 47 50 48 45 39 32 29 31 31 29 30 28 31 32 33 33 44 45 44 44 44 44 34
42 42 43 46 46 46 47 45 44 46 45 45 45 37 35 35 35 36 38 40 34 32 32 31 28 28 28 27 30 30 28 29 29 32 40 42 43 40
41 42 42 44 44 46 46 47 47 46 44 43 37 34 32 32 32 33 33 33 33 33 33 31 27 26 24 24 26 26 25 26 26 27 28 34 39 42
42 42 43 44 45 43 44 44 43 39 39 36 33 32 32 32 31 30 31 31 31 31 30 28 27 24 24 23 21 21 24 26 26 25 25 25 26 27
41 40 43 44 43 41 40 40 36 35 35 34 32 32 31 30 29 30 28 28 28 27 29 28 26 25 21 19 21 19 21 20 23 23 24 25 26 27
41 40 39 38 36 36 35 36 36 35 32 32 31 30 30 29 28 28 28 28 26 25 25 27 27 26 20 19 16 20 22 21 22 22 23 23 25 27
37 35 33 34 33 34 33 33 34 35 31 31 30 30 29 27 27 27 28 27 26 26 23 25 24 22 16 20 27 23 22 21 22 23 24 22 24 26
33 31 31 31 33 33 33 32 32 33 31 30 29 29 28 27 28 27 27 27 26 24 19 16 16 10 5 12 20 32 23 23 23 23 24 23 23 25
31 30 30 31 32 32 33 32 32 31 29 29 28 28 28 28 27 27 27 26 24 19 14 11 7 4 11 11 12 18 28 21 22 22 24 25 27 32
30 29 30 31 31 32 32 32 31 30 29 28 28 28 27 27 27 27 26 27 24 14 11 10 14 24 1 5 10 16 21 30 29 22 23 24 25 27
29 29 30 30 32 31 32 32 30 29 28 28 27 27 28 28 27 26 23 21 18 14 11 7 5 4 3 8 10 12 18 23 28 32 33 31 27 23
29 29 29 30 30 30 31 31 30 28 28 27 27 27 28 26 26 24 23 21 19 15 12 11 8 4 8 11 15 14 16 20 21 22 25 33 34 34

GFSNE_sfc_temp_006.txt.gz
Temp
56 57 58 60 61 61 61 61 57 53 56 61 60 66 65 64 63 64 63 61 61 62 63 64 65 65 66 66 66 65 65 64 63 62 61 59 57 57
57 56 57 58 58 59 59 59 59 56 53 61 63 63 63 59 61 61 62 59 60 62 62 61 62 63 63 63 63 62 61 61 61 60 59 58 57 57
55 56 55 56 56 57 57 58 57 57 53 58 61 63 60 57 58 58 60 60 60 60 61 61 60 61 61 61 60 60 59 59 59 58 58 57 56 56
54 54 54 56 54 55 55 55 55 56 54 52 57 57 58 60 59 58 56 57 58 58 59 59 60 59 60 59 57 57 56 56 56 56 55 55 55 55
53 52 52 52 52 52 53 52 53 55 55 54 54 56 57 58 54 53 56 54 54 54 57 57 59 58 58 57 56 55 53 53 52 52 53 52 53 53
51 51 51 51 50 50 50 50 52 52 53 52 53 54 55 56 52 53 50 47 50 50 52 54 56 56 57 55 53 51 50 50 50 51 50 50 50 50
48 49 50 49 49 51 51 49 50 48 48 49 50 52 52 52 49 49 48 51 46 48 45 48 50 52 52 53 50 49 49 48 48 48 49 49 48 48
47 48 49 49 50 51 51 50 49 46 46 46 46 47 49 51 52 52 51 48 46 45 46 46 47 46 47 48 48 48 47 47 47 48 48 48 48 47
47 46 46 49 46 46 47 49 47 48 49 46 44 45 46 50 52 50 51 50 49 43 43 41 40 42 40 42 47 46 46 45 46 47 47 47 47 47
44 44 44 43 44 45 44 43 44 45 46 47 45 46 47 48 49 48 48 47 37 38 41 37 36 37 36 38 45 45 44 45 45 46 46 46 46 46
43 43 44 43 45 46 43 41 41 43 48 48 48 48 48 49 49 47 44 40 36 34 34 34 32 31 32 33 38 42 42 43 45 46 46 46 45 45
41 42 45 44 45 45 41 40 38 41 43 43 44 46 47 47 46 43 44 41 38 31 33 33 30 31 28 30 32 33 38 44 46 46 46 46 45 36
39 39 40 43 44 44 44 42 40 43 42 39 40 42 43 36 36 35 36 39 36 33 34 33 30 28 28 26 28 30 33 33 34 40 45 45 44 40
37 38 39 42 43 44 44 44 43 42 38 36 35 36 35 35 34 33 33 33 34 34 35 32 29 28 26 25 25 28 28 29 31 30 29 35 41 43
38 39 41 41 42 41 41 42 41 36 34 33 34 34 34 33 31 30 31 30 29 30 30 29 29 27 26 25 24 25 26 27 26 26 25 26 27 28
38 37 39 40 40 39 38 38 36 35 34 34 33 34 33 30 29 29 29 29 27 26 28 28 27 26 23 25 24 22 22 23 23 23 24 25 26 27
37 34 33 32 31 32 33 34 35 34 32 33 32 31 31 29 28 28 28 28 26 25 25 26 27 26 25 21 18 21 22 21 22 22 22 23 24 26
33 29 28 28 28 30 30 31 33 34 32 32 31 30 29 27 27 27 28 27 25 25 24 25 24 19 18 21 25 22 22 21 21 22 23 21 22 24
28 28 27 27 28 29 29 30 30 32 32 31 30 29 28 27 28 26 27 27 26 24 21 20 14 8 8 10 18 30 22 22 22 22 23 22 22 24
27 28 26 27 28 28 29 29 29 31 31 30 29 28 27 27 26 26 27 26 23 21 17 11 5 2 6 9 12 16 30 22 22 21 22 24 26 32
27 27 27 27 28 28 27 28 29 30 31 29 28 27 27 27 26 27 27 27 25 18 13 12 7 20 -1 5 11 16 20 29 27 21 21 23 24 25
27 26 26 27 28 26 26 27 28 30 29 28 27 27 27 27 26 26 26 24 22 20 13 4 4 4 3 8 8 10 16 22 27 31 32 30 24 17
26 26 25 26 27 26 26 27 27 29 29 27 27 27 27 26 25 24 23 22 20 16 14 12 7 5 7 11 11 10 12 16 18 18 27 33 34 34

GFSNE_sfc_temp_009.txt.gz
Temp
51 50 51 54 55 55 56 55 53 49 52 59 59 64 63 63 61 62 62 61 61 61 62 62 63 63 64 66 66 67 67 66 65 65 65 64 63 64
53 52 51 53 53 53 53 54 54 51 48 55 57 58 59 60 60 60 61 58 60 60 61 60 60 60 61 63 64 64 65 65 65 65 65 64 63 62
51 51 50 52 51 51 52 52 51 51 48 52 55 57 56 56 58 57 57 58 60 60 61 60 59 59 59 60 61 62 63 64 65 65 64 63 62 60
49 49 49 52 49 50 49 49 49 49 47 45 51 52 53 57 58 57 57 58 57 59 60 60 59 59 59 59 59 60 61 61 62 63 62 61 60 58
48 48 48 48 46 46 46 46 48 49 48 47 48 51 52 54 55 56 55 56 56 55 57 58 58 58 58 57 58 58 58 59 59 58 58 57 56 56
47 48 47 46 46 46 46 43 44 43 43 43 44 47 49 51 52 50 51 53 51 54 54 54 56 56 56 56 56 56 56 56 56 55 54 53 53 52
45 46 46 46 47 49 46 43 42 41 41 40 41 43 44 45 46 48 48 51 52 52 51 50 50 51 52 54 55 54 54 54 54 53 52 50 49 49
41 43 44 45 45 48 47 47 46 41 39 39 39 39 41 43 44 45 44 43 43 49 47 48 49 48 50 52 54 54 53 52 51 51 50 48 47 47
40 40 41 44 43 42 44 46 45 45 45 41 39 40 41 44 44 42 43 43 43 47 45 45 44 46 49 47 52 52 51 50 49 49 47 47 47 47
40 39 39 39 41 42 42 42 40 40 41 43 43 44 44 45 45 45 44 44 45 46 44 41 43 42 38 40 48 49 49 48 47 47 46 46 45 45
40 40 39 39 43 44 41 38 37 38 45 46 46 46 46 45 45 44 42 41 40 42 39 40 34 33 34 35 42 48 47 47 46 46 45 44 44 45
37 37 41 41 43 43 39 37 34 36 39 40 40 40 42 41 44 41 39 36 36 37 35 35 31 31 30 31 33 41 42 45 43 42 43 44 45 41
34 36 37 41 41 42 42 38 36 39 39 37 36 36 37 38 38 38 37 34 33 34 39 36 32 30 30 27 29 32 33 37 38 40 43 45 46 40
35 35 36 40 40 41 40 40 41 40 36 34 33 33 34 34 35 35 33 32 33 32 35 34 31 29 27 26 25 27 28 29 31 33 34 44 46 45
36 37 39 39 38 36 37 38 38 34 32 31 32 32 33 34 33 30 31 31 29 28 29 30 30 29 28 25 24 24 26 26 30 30 30 31 31 30
34 34 35 36 36 34 33 33 33 33 32 31 31 33 33 33 31 30 29 29 26 26 27 28 27 27 25 25 26 25 25 25 26 27 28 27 27 29
36 31 29 29 27 28 29 31 31 31 30 31 31 31 30 31 30 29 28 28 25 24 24 26 27 26 25 25 23 25 24 23 25 24 24 24 25 26
32 27 25 26 26 26 27 27 29 30 29 29 31 30 29 28 28 27 28 27 25 24 24 25 24 23 23 25 29 24 23 22 22 23 23 22 22 23
27 25 25 25 25 25 26 26 26 27 28 28 30 30 28 28 28 26 27 27 24 23 22 21 19 19 19 17 21 30 22 22 22 21 22 22 22 24
26 25 24 25 25 25 25 26 25 26 27 28 29 28 28 27 26 26 27 24 23 22 19 18 16 10 11 14 15 17 28 21 22 21 21 23 25 31
26 25 26 25 25 24 26 26 25 25 27 27 29 27 27 27 26 26 27 27 25 21 18 15 15 18 2 6 16 16 20 29 26 20 20 20 23 24
26 25 26 26 25 24 25 25 24 24 26 27 28 27 27 27 26 26 25 23 22 21 17 11 11 10 11 9 8 10 15 20 27 32 30 29 21 19
24 25 25 25 25 25 25 24 24 24 25 28 27 27 26 25 25 25 23 22 21 18 16 13 10 5 6 9 9 8 11 14 17 18 27 33 32 33

GFSNE_sfc_temp_012.txt.gz
Temp
46 46 47 49 49 50 51 50 47 43 45 51 51 57 56 58 59 60 59 60 61 61 62 61 62 62 62 62 65 65 66 66 67 67 66 66 67 67
49 46 47 48 48 49 49 49 48 46 42 50 51 52 53 55 57 58 59 57 59 61 61 61 60 60 60 60 60 61 63 64 65 66 67 67 66 66
45 45 45 47 47 47 47 46 45 45 42 46 49 50 48 50 53 55 57 58 59 59 59 60 60 59 59 59 59 59 59 61 63 65 66 66 67 66
43 43 44 48 44 44 44 43 43 45 41 38 43 44 45 47 49 50 53 56 56 58 59 59 59 59 59 59 59 58 58 58 59 61 64 65 65 64
43 43 42 43 42 42 41 41 45 45 41 39 39 43 43 44 46 48 49 50 54 55 57 57 57 58 58 58 58 58 57 57 57 57 58 61 63 63
42 41 41 41 41 41 41 41 43 39 39 38 38 39 39 42 42 41 42 46 47 52 53 54 56 56 56 57 56 55 55 55 56 57 57 57 59 60
40 40 41 42 44 44 42 40 40 39 40 38 36 37 37 37 37 40 40 44 45 47 46 48 51 52 51 53 52 53 53 54 55 56 57 57 57 57
37 39 39 41 41 44 44 45 44 39 38 37 35 35 36 37 39 40 40 39 37 47 45 45 48 48 50 51 53 53 53 54 54 55 55 56 54 53
37 37 38 41 40 39 41 43 43 44 43 39 35 35 36 38 40 38 39 39 38 43 43 41 45 45 49 51 52 52 52 53 53 54 54 53 51 51
37 37 37 37 38 39 38 36 35 38 38 40 39 37 39 41 40 40 39 38 39 41 44 39 44 43 45 45 47 48 49 51 52 53 52 50 49 49
37 37 36 36 40 42 37 35 35 35 40 42 42 43 44 44 43 39 34 34 34 35 40 39 41 42 34 35 38 45 48 51 50 49 48 47 47 46
35 36 39 39 41 41 37 35 31 32 35 35 36 37 39 39 41 38 35 32 32 31 32 36 37 33 33 32 34 39 46 48 48 48 47 46 46 40
33 34 36 39 39 39 39 34 33 37 35 33 33 34 35 36 36 35 35 33 31 30 36 35 33 32 32 29 30 31 38 43 42 44 45 44 43 40
33 35 35 36 38 38 36 37 37 37 31 30 30 31 32 33 34 34 34 34 32 30 29 29 29 32 29 27 27 29 30 32 37 37 39 42 43 41
35 35 36 36 36 34 35 35 35 30 29 27 28 29 30 32 33 33 33 32 29 28 28 27 29 29 29 27 25 25 27 27 32 32 35 37 38 38
34 31 34 34 34 33 31 30 28 29 29 28 27 28 30 31 30 32 30 28 25 26 28 28 26 27 25 26 27 26 27 26 27 29 29 28 31 35
35 32 29 27 26 26 27 27 27 27 27 27 26 26 27 29 29 30 28 28 25 24 24 26 27 27 26 26 24 25 24 25 26 26 27 26 28 31
31 27 25 24 24 25 24 25 25 27 27 26 26 26 26 28 27 29 28 27 25 24 23 23 23 23 24 26 28 24 23 23 24 26 27 25 25 26
26 25 24 24 24 24 24 24 22 25 26 25 25 26 27 28 27 27 27 26 24 23 21 21 19 19 20 18 22 30 24 24 24 24 25 25 25 25
25 24 23 24 23 23 23 23 23 25 24 25 25 25 27 26 26 26 26 24 23 22 21 19 18 16 17 19 20 22 29 24 24 22 22 23 26 33
24 24 24 24 24 24 23 23 24 24 25 24 24 26 27 26 26 26 26 27 25 22 19 18 15 21 12 15 20 19 21 30 26 20 20 19 22 23
24 24 24 24 24 23 23 23 23 23 23 23 24 27 26 26 25 25 24 23 22 20 17 15 14 13 13 15 11 11 16 20 27 31 31 28 21 19
23 24 24 23 23 23 23 23 23 23 23 24 26 26 25 24 24 24 23 22 21 19 18 16 14 12 11 13 11 11 14 17 21 22 25 32 32 34

GFSNE_sfc_temp_015.txt.gz
Temp
50 49 49 50 51 51 51 50 46 40 44 51 53 59 59 59 59 59 59 58 59 59 60 60 60 61 62 62 63 63 62 62 64 65 66 66 67 68
50 47 48 49 49 50 50 50 49 43 38 50 52 55 54 55 56 57 57 54 56 58 59 59 59 59 60 60 61 61 61 61 61 63 65 66 67 67
47 46 46 48 47 47 48 48 46 45 40 46 51 53 51 50 53 54 54 56 58 56 57 57 57 58 58 59 59 60 60 61 61 61 62 63 65 66
45 45 44 46 44 45 46 44 44 44 42 39 44 47 47 49 50 48 51 55 55 54 55 56 55 56 56 57 57 58 58 58 59 60 60 61 62 64
45 43 43 43 42 43 43 42 43 44 42 40 40 46 46 47 46 47 48 49 52 51 53 53 54 53 54 55 55 57 56 56 57 57 58 59 60 61
44 43 42 42 41 42 42 42 43 41 41 40 40 41 43 45 43 40 41 46 46 51 51 52 52 52 53 53 55 54 54 54 55 56 57 56 56 57
42 42 42 42 42 43 42 41 41 39 38 38 37 38 39 39 38 41 38 41 44 45 46 48 50 51 49 51 52 52 52 53 54 55 55 56 56 56
39 41 42 41 42 42 42 43 42 37 36 34 35 35 37 38 39 39 38 36 34 47 43 41 46 46 50 51 52 52 52 53 53 53 54 54 54 55
39 40 40 42 41 40 41 42 40 41 41 38 35 34 34 37 36 35 34 34 36 43 40 35 42 41 45 48 50 51 51 51 52 52 52 53 53 54
39 40 39 38 40 40 40 35 39 39 40 40 38 38 39 39 39 39 38 37 38 39 41 33 39 38 43 46 50 50 50 50 50 50 50 51 52 52
40 40 38 39 40 41 35 36 36 37 40 40 40 41 41 41 41 38 34 33 32 34 39 34 36 36 39 42 44 45 45 46 47 48 49 50 51 51
37 38 39 39 40 38 37 35 31 33 35 36 36 36 38 38 39 38 35 31 31 30 37 33 36 34 33 39 37 38 37 43 46 47 50 49 47 45
34 36 38 39 37 39 39 35 33 36 35 33 32 33 34 35 36 36 35 32 30 30 36 34 32 32 32 33 36 37 33 42 45 46 47 46 46 44
35 37 37 36 38 37 36 36 36 35 31 29 29 29 31 31 32 33 33 33 34 32 34 31 29 30 30 30 31 33 31 34 41 40 40 43 43 43
37 36 37 37 37 35 34 35 34 30 28 26 27 28 30 30 30 31 33 33 33 32 32 29 28 28 29 30 31 31 30 29 35 37 37 36 36 37
34 35 35 35 35 33 32 32 30 30 28 27 26 29 30 29 29 31 31 32 31 31 31 30 29 28 30 32 32 31 29 29 32 32 32 35 37 38
35 33 31 30 28 29 29 29 29 29 27 27 26 27 27 28 28 31 31 31 29 28 28 29 29 30 30 30 29 29 30 29 30 31 31 28 30 36
32 28 26 27 26 26 26 26 27 27 27 26 26 26 26 26 27 30 30 29 27 26 25 25 26 28 28 28 30 27 27 27 28 30 31 28 27 29
28 25 25 25 25 25 25 25 24 26 25 25 25 25 25 26 28 28 29 27 25 24 23 23 22 22 23 21 25 30 26 26 27 26 29 29 28 28
26 25 24 25 25 24 24 24 24 24 24 25 25 24 25 27 27 28 27 26 25 24 23 22 21 19 22 22 23 25 31 28 28 27 27 29 33 34
25 25 25 25 24 24 24 24 23 23 24 24 24 24 27 26 27 27 27 28 27 25 22 21 19 23 19 22 25 24 27 32 32 30 29 29 28 29
25 25 25 25 24 24 23 23 23 23 23 23 24 25 27 27 26 26 26 25 24 23 22 21 22 22 23 25 22 22 24 27 32 33 33 32 30 26
24 25 24 24 24 23 23 23 23 23 23 24 24 27 27 26 26 26 25 25 25 24 23 24 24 24 21 23 24 24 23 25 28 28 30 31 33 34

GFSNE_sfc_temp_018.txt.gz
Temp
53 54 53 53 54 54 53 51 45 40 44 51 52 58 59 61 60 59 58 56 57 56 56 57 58 58 59 59 60 60 61 61 62 63 63 62 61 65
53 52 51 52 52 52 50 50 49 46 42 50 51 52 55 58 57 56 56 53 54 55 54 55 56 57 57 57 57 58 59 60 61 62 63 64 64 62
51 50 49 51 49 49 49 48 47 46 42 46 49 52 51 52 54 55 55 55 56 53 53 54 54 54 55 55 55 57 57 58 59 61 62 63 63 63
49 48 47 49 47 47 47 46 46 47 43 39 45 47 47 49 51 51 53 54 54 52 52 52 52 53 54 54 54 54 54 55 56 58 59 61 61 62
48 47 46 46 45 45 45 45 46 45 44 42 41 46 46 48 47 48 48 49 53 50 51 51 52 53 53 53 53 53 53 53 54 56 56 58 59 60
47 46 46 45 44 43 44 43 43 42 43 41 40 41 43 45 46 44 44 47 46 50 50 50 50 50 51 52 52 52 51 52 54 55 55 55 55 57
45 45 45 44 43 44 43 41 40 40 39 38 37 39 40 41 40 42 39 42 43 45 45 47 47 49 50 51 50 50 51 52 53 53 54 55 54 55
43 44 45 43 44 43 43 43 42 39 37 36 37 36 37 39 39 39 38 35 32 44 41 43 48 46 48 50 48 49 50 50 52 52 53 53 53 53
43 42 43 45 43 41 43 43 42 40 40 39 36 36 35 39 39 36 35 34 34 41 41 37 44 41 46 46 46 47 48 49 50 51 51 52 52 52
43 42 42 41 41 42 42 39 38 41 41 42 39 39 38 38 38 38 36 36 38 41 41 33 41 38 44 46 44 45 47 49 49 50 50 50 51 51
42 42 41 40 41 41 38 34 36 39 41 40 40 40 40 40 39 36 32 31 32 36 40 36 37 36 36 40 44 46 47 46 46 47 47 48 49 50
40 40 41 41 41 40 37 38 32 35 36 37 38 38 37 38 38 36 33 29 30 30 37 32 34 35 32 40 39 40 42 45 44 44 46 47 47 47
37 39 41 40 39 39 39 37 35 36 36 35 34 34 35 35 35 36 35 30 28 29 35 34 32 33 33 33 37 40 42 40 36 45 49 49 48 47
36 39 39 38 38 37 37 37 37 36 34 31 30 30 31 31 32 33 33 32 33 31 34 32 30 31 31 31 31 37 40 34 36 39 41 46 46 47
39 38 37 37 36 36 36 36 35 33 31 28 28 28 30 30 31 31 32 32 33 33 33 33 32 31 30 29 29 33 34 32 35 36 36 36 38 41
36 36 37 36 35 35 34 34 34 32 30 28 27 29 30 29 29 31 29 31 30 32 33 31 31 30 29 29 30 32 34 30 32 34 34 34 35 36
35 35 34 33 30 31 32 32 32 31 28 28 26 26 28 28 29 30 30 30 29 29 29 30 31 31 31 30 31 33 32 30 32 32 33 32 34 34
33 31 29 29 28 29 29 29 29 28 27 26 26 26 26 26 26 28 30 30 27 27 25 26 26 28 29 30 32 30 30 30 31 33 34 33 31 34
30 28 27 28 28 28 27 26 25 26 25 25 25 25 25 26 27 29 28 28 27 26 26 25 24 23 26 23 27 32 29 30 30 31 33 33 31 33
29 27 27 27 27 26 26 24 24 25 24 25 24 24 25 26 27 27 28 28 28 27 26 25 23 21 22 23 23 26 30 30 29 28 28 29 31 36
28 27 28 27 26 26 25 24 23 23 24 24 24 25 26 27 27 27 27 28 28 26 24 24 23 26 23 24 25 25 27 31 31 30 29 29 27 28
28 27 27 27 26 25 24 23 23 23 23 24 25 26 28 29 28 27 27 26 27 26 26 27 28 28 28 28 24 25 27 30 34 35 36 35 32 27
27 27 26 26 25 24 24 23 23 23 24 25 26 27 29 28 29 28 27 27 27 27 26 27 27 28 28 28 27 26 27 29 32 31 31 35 36 38

GFSNE_sfc_temp_021.txt.gz
Temp
52 52 51 52 52 51 51 49 43 36 38 45 46 52 53 53 53 53 54 55 56 56 55 56 56 55 55 55 56 57 58 58 59 60 61 62 63 63
52 51 50 51 50 50 49 48 46 42 37 45 46 48 50 52 52 52 52 51 53 54 55 55 54 54 54 54 54 54 56 57 57 59 60 62 63 63
50 49 48 49 48 48 47 46 45 44 38 42 46 47 46 46 48 49 50 50 51 53 53 53 53 52 53 52 53 53 54 55 56 57 58 59 60 62
48 47 47 49 46 46 45 44 43 44 40 37 41 42 43 45 45 45 48 51 49 50 51 51 52 52 52 52 52 53 53 54 54 54 55 56 58 60
47 46 45 45 44 44 43 42 42 43 41 37 37 41 42 43 42 44 44 45 49 49 50 49 50 50 50 50 51 52 52 52 52 53 53 54 56 58
45 45 45 44 43 42 42 41 41 38 38 37 37 37 39 41 41 38 38 41 41 46 47 47 47 48 49 50 49 48 49 51 51 51 52 53 53 55
43 45 45 45 44 44 43 40 38 36 37 36 34 34 34 35 35 37 35 37 38 40 39 41 42 42 44 47 48 49 50 50 50 50 52 53 53 54
41 43 44 44 44 44 44 43 42 37 35 33 32 31 32 35 35 34 33 31 29 39 37 37 41 40 42 44 47 48 48 48 48 48 49 50 51 52
41 42 42 45 43 41 42 42 42 42 40 36 33 32 32 34 34 31 31 31 30 35 35 32 38 36 41 44 46 46 47 47 47 48 48 49 50 51
41 41 41 40 40 40 39 36 36 37 38 40 37 36 36 36 34 35 33 32 33 35 37 29 35 34 39 40 43 44 45 46 46 47 48 49 49 50
41 41 40 39 41 41 37 32 34 36 40 40 40 40 40 40 39 34 28 28 27 30 34 31 31 32 33 35 39 44 41 41 43 46 47 47 47 48
38 39 40 40 41 40 36 35 30 32 33 34 35 35 36 35 37 34 31 26 26 25 31 28 29 30 27 33 35 37 38 42 43 44 44 44 46 44
34 36 38 40 39 39 39 35 33 35 34 32 31 31 32 33 33 33 32 28 26 25 31 31 28 29 29 29 33 35 35 36 38 37 40 43 46 45
34 36 37 37 38 38 37 37 37 36 31 30 28 28 28 28 29 30 30 30 31 29 31 31 28 28 27 28 27 32 33 34 34 34 37 45 49 48
37 37 36 37 37 36 36 36 35 30 29 26 26 26 27 28 28 29 30 30 30 31 32 32 30 31 28 26 26 27 29 32 33 32 35 35 36 42
35 33 36 36 36 34 33 33 31 30 29 26 25 26 27 27 26 28 27 27 27 28 33 32 30 28 26 28 28 26 30 29 32 32 34 34 35 38
35 33 32 30 28 29 29 29 29 29 26 26 25 24 25 26 26 27 27 28 27 26 26 28 29 30 29 28 27 29 31 30 32 32 33 32 32 36
32 29 27 27 26 27 26 26 27 27 25 25 24 24 24 24 24 26 28 28 26 26 25 25 25 24 27 29 31 29 29 30 32 32 33 32 32 34
28 26 26 26 25 25 25 24 23 25 25 24 23 24 24 24 25 27 27 27 27 27 26 25 23 21 23 21 26 32 29 30 31 30 31 32 31 33
27 26 25 25 25 25 24 23 23 24 23 23 24 24 24 24 25 26 26 25 25 25 25 25 22 21 20 21 23 27 32 30 29 29 30 32 34 38
26 26 26 25 25 24 24 24 23 23 24 23 23 24 25 25 25 25 24 27 28 25 23 24 23 29 23 25 24 25 29 33 32 30 30 30 30 31
26 25 25 26 24 24 24 23 23 23 23 23 24 25 26 26 26 25 25 24 26 26 25 27 27 27 26 24 23 25 27 30 33 34 35 34 29 26
25 25 25 24 24 24 23 23 23 23 24 24 25 26 26 25 26 27 26 26 27 27 26 27 26 26 26 26 25 25 26 28 29 29 30 38 38 38

GFSNE_sfc_temp_024.txt.gz
Temp
42 41 42 44 44 44 43 43 38 32 34 40 40 46 46 47 49 49 48 51 52 52 52 53 54 54 55 55 56 56 56 56 56 56 58 59 60 61
45 43 43 44 43 44 42 42 40 37 32 40 41 42 44 47 47 47 47 49 49 51 51 51 52 52 52 53 54 54 54 54 55 56 57 58 59 61
42 43 42 43 42 42 42 41 39 38 34 37 40 42 41 41 43 44 45 45 45 49 49 50 51 51 52 52 52 53 53 53 54 55 56 57 59 58
40 41 41 44 40 41 40 39 38 38 35 32 37 37 38 40 41 40 43 46 44 47 48 48 49 49 49 50 50 50 51 51 52 53 53 54 54 56
39 39 39 39 39 39 38 37 38 40 37 34 33 37 37 39 38 39 40 40 43 45 46 46 47 47 47 48 48 49 49 49 50 50 51 52 53 54
39 39 39 39 39 38 39 38 40 37 35 33 33 32 35 37 37 32 33 36 36 41 42 43 44 45 46 46 47 47 47 48 49 50 48 50 51 52
37 38 39 41 44 43 41 39 37 35 34 31 31 31 32 31 31 33 31 33 34 35 35 36 37 37 39 42 43 45 46 47 48 49 49 50 50 51
35 37 39 41 41 43 43 43 41 36 33 30 30 29 31 32 32 30 29 28 26 36 32 32 35 34 37 38 43 45 46 46 47 48 48 48 48 49
36 36 37 40 39 37 39 41 37 39 39 34 30 30 30 31 30 29 29 28 28 31 31 29 34 32 36 40 42 43 45 45 45 46 47 48 48 48
36 36 36 36 37 38 37 34 34 34 35 36 34 34 34 35 34 34 32 29 30 31 33 25 31 29 34 36 40 41 42 44 45 43 42 45 47 48
37 37 36 36 39 41 36 31 31 33 37 39 38 38 39 38 37 33 26 25 24 27 30 26 28 27 30 31 35 40 41 39 41 41 42 43 45 47
35 35 37 38 40 40 35 33 29 30 32 32 32 32 34 32 36 32 29 24 24 23 28 25 25 26 24 31 32 33 35 40 41 41 42 43 45 42
31 32 34 38 38 38 39 33 32 35 33 29 28 29 29 30 30 30 30 26 23 23 29 29 26 26 26 26 30 32 32 33 33 34 38 40 41 42
32 33 34 37 38 38 36 36 37 35 29 27 26 26 26 25 26 27 28 28 28 27 29 28 26 26 25 25 25 29 30 31 31 31 33 36 40 42
34 35 36 37 36 34 34 35 34 28 27 24 24 24 25 25 26 26 27 29 29 30 30 29 28 29 27 24 23 25 27 29 31 32 32 33 36 43
34 31 34 34 34 32 30 30 28 28 26 25 24 25 25 25 24 26 25 26 26 28 30 30 27 26 21 23 26 25 27 27 32 32 32 34 37 39
34 30 28 27 25 26 27 27 28 27 25 25 24 23 24 24 24 26 26 27 25 26 26 27 27 26 25 25 25 27 28 30 32 32 33 33 34 38
30 26 24 24 24 25 25 24 25 26 24 24 23 23 23 23 23 26 26 25 23 24 25 26 24 22 21 27 31 27 29 30 31 32 33 33 33 37
26 24 23 24 24 24 23 23 22 24 24 23 22 23 22 23 24 24 25 25 24 25 25 25 22 20 20 19 26 33 28 30 32 32 33 33 32 33
25 23 23 23 24 23 23 23 23 23 23 23 23 22 23 23 23 24 25 24 24 26 24 25 23 22 19 19 21 29 33 30 31 31 32 34 36 39
24 23 24 24 23 23 23 23 23 22 24 22 22 23 24 24 24 24 25 27 27 25 24 24 25 32 26 26 26 27 30 34 33 30 31 33 32 33
24 23 24 24 23 23 22 22 22 22 22 22 23 23 24 25 23 24 25 25 25 26 25 25 26 27 26 26 25 26 28 30 33 35 37 35 29 29
23 24 23 23 23 22 22 22 22 22 22 23 24 25 26 24 24 25 26 26 26 27 26 25 25 26 26 26 27 27 27 28 30 30 32 37 37 37

GFSNE_sfc_temp_027.txt.gz
Temp
38 37 37 41 41 41 40 40 35 30 32 37 37 42 42 44 45 45 44 47 49 50 51 51 51 52 52 52 53 53 54 55 55 56 56 57 57 58
40 37 38 40 40 41 39 38 38 35 30 37 38 40 42 44 44 44 43 46 47 48 49 49 50 49 50 50 50 52 53 53 54 55 56 57 57 57
36 38 38 39 38 39 39 38 37 36 31 35 39 40 39 39 40 41 42 42 42 46 48 48 48 48 49 48 49 49 51 52 52 53 53 53 53 54
36 35 36 40 36 37 37 37 36 37 34 31 36 36 36 38 38 38 40 43 41 42 46 46 47 46 47 47 48 48 49 49 50 51 52 53 53 53
35 35 35 35 34 35 36 36 37 39 37 33 32 35 36 36 35 37 35 36 39 43 44 44 45 45 45 46 46 46 47 47 48 49 49 50 51 51
35 35 35 35 35 36 37 37 38 35 35 33 32 32 33 35 34 31 32 35 34 39 40 41 42 43 44 44 43 43 44 45 46 47 48 48 49 49
34 36 36 38 41 41 39 36 35 34 32 31 31 30 30 30 29 31 30 31 32 34 33 34 36 35 36 39 40 41 42 44 45 46 47 48 49 49
33 35 36 38 38 41 41 41 40 35 32 30 29 27 29 29 30 30 29 27 25 34 31 30 33 32 34 35 40 41 42 43 44 45 46 46 47 47
34 34 35 38 37 35 38 40 39 39 38 34 30 29 28 30 30 28 27 26 26 31 30 26 31 30 33 36 39 40 42 42 43 43 43 44 46 47
33 34 34 34 34 36 36 34 33 33 34 35 33 32 33 33 33 32 30 28 28 30 31 23 29 28 31 32 38 39 40 40 39 40 42 42 44 45
35 35 35 34 37 40 35 31 30 30 36 38 37 38 37 37 36 31 25 24 23 25 29 25 26 25 27 28 32 37 39 40 41 40 41 42 43 44
33 33 37 36 39 38 34 32 27 29 30 30 30 31 32 32 35 31 27 22 22 21 27 24 24 24 23 29 30 32 32 37 39 40 41 41 42 40
30 31 33 37 36 38 38 31 30 34 32 27 27 28 29 29 29 29 28 25 22 22 28 28 25 25 24 24 27 29 30 32 32 34 37 38 40 40
32 32 33 35 37 36 34 35 36 34 28 26 25 25 25 25 26 27 27 27 27 26 28 28 25 25 24 23 23 24 28 30 30 30 31 34 38 40
33 34 35 35 34 32 33 34 33 27 25 24 24 24 25 25 26 26 27 28 28 29 31 29 28 26 23 22 22 23 27 29 30 30 31 32 32 34
33 30 32 32 32 31 29 29 28 27 25 24 23 24 25 24 24 25 24 25 25 26 30 30 29 27 23 22 23 24 27 26 30 31 32 32 35 37
33 28 27 26 24 25 27 27 27 26 25 24 23 23 23 24 24 25 24 25 23 24 24 28 29 26 24 22 22 26 27 28 31 32 32 33 36 38
29 25 23 23 23 24 24 24 25 25 24 24 23 23 22 22 22 24 25 24 24 24 24 26 25 23 21 24 29 27 29 29 32 32 32 33 33 37
24 23 22 22 23 23 23 23 22 23 24 23 22 23 22 22 24 23 24 25 24 25 26 26 24 21 18 19 26 34 28 30 32 33 33 33 32 36
24 22 22 22 23 22 22 22 22 22 22 22 22 22 22 22 22 23 23 23 25 26 25 26 24 24 20 20 20 28 33 31 30 32 32 34 35 38
22 22 23 23 22 22 22 22 22 21 23 22 22 22 23 23 23 23 23 28 28 25 23 23 25 32 28 27 26 28 31 35 35 32 33 33 33 34
23 22 23 23 22 22 21 21 21 21 21 21 21 22 23 24 24 23 23 24 25 25 24 25 27 28 27 27 26 26 28 32 35 37 37 35 33 31
22 23 22 22 22 21 21 20 20 20 21 21 21 23 24 25 26 25 24 26 25 25 24 23 25 26 27 28 27 26 27 30 32 32 33 37 37 37

GFSNE_sfc_temp_030.txt.gz
Temp
35 34 34 36 36 37 37 36 32 26 28 35 35 39 39 41 43 43 43 46 47 48 49 49 49 50 50 52 52 52 51 53 51 53 55 56 57 58
38 34 34 35 36 36 35 35 35 31 27 35 36 39 40 42 42 42 42 45 45 47 47 47 48 48 48 49 50 49 49 50 51 53 54 54 55 56
34 34 34 35 35 35 35 35 34 33 29 33 37 38 37 37 39 40 41 40 40 44 46 46 47 47 47 48 48 48 49 50 50 51 52 52 54 54
34 33 33 38 33 33 33 33 33 34 32 30 33 34 35 37 37 36 38 41 39 42 43 45 45 45 46 46 46 46 47 48 48 49 50 51 52 53
33 32 32 33 32 32 33 33 34 37 35 32 31 35 35 36 34 36 34 36 38 41 43 43 43 44 44 44 44 44 44 44 44 45 47 48 50 51
34 33 33 32 32 32 35 34 36 33 33 31 31 31 32 35 32 30 30 33 32 37 39 40 41 42 42 43 43 43 43 43 43 45 46 46 47 49
32 33 34 37 40 40 38 36 35 32 30 30 30 30 29 29 28 30 29 30 31 33 31 33 34 34 35 38 39 40 40 41 42 43 44 44 46 46
32 34 34 37 36 40 40 40 39 34 31 29 29 27 28 29 30 29 28 26 23 33 30 30 32 31 32 33 38 39 40 41 42 42 43 43 45 45
31 32 33 37 36 33 36 39 38 38 36 32 28 27 28 29 29 27 26 25 25 29 29 26 31 29 32 35 38 38 39 40 41 41 41 42 43 44
32 31 31 32 33 36 35 32 32 31 31 33 31 32 32 33 32 30 28 27 28 29 30 22 27 26 30 31 36 37 38 39 40 40 41 41 42 43
33 31 32 33 37 39 33 30 30 29 35 37 37 37 36 36 35 29 25 23 21 24 28 25 24 24 26 27 30 35 37 38 39 40 41 40 39 40
32 31 36 36 38 38 34 31 25 27 28 29 29 30 32 31 34 30 26 21 21 20 27 23 23 24 22 28 28 30 30 36 38 39 40 41 41 39
31 32 32 36 37 37 37 29 29 33 30 27 27 27 29 29 29 29 27 24 22 21 28 27 24 25 24 23 27 29 29 30 31 33 37 38 40 40
31 31 31 36 36 35 33 34 35 33 27 26 25 25 25 25 26 27 27 27 27 25 27 27 24 25 24 23 22 25 26 28 29 29 30 33 36 37
32 34 35 34 33 31 32 33 33 26 25 24 23 23 24 25 26 25 27 27 27 27 28 29 27 26 26 24 22 22 23 26 29 29 30 30 30 31
33 30 32 31 31 30 29 29 27 27 26 24 23 24 25 24 24 25 24 24 23 25 30 30 29 27 24 23 22 21 24 24 28 30 31 32 32 32
32 27 26 25 24 25 26 26 26 26 24 24 23 22 23 23 23 25 24 24 23 24 25 28 30 29 26 22 20 24 25 27 30 32 32 32 35 35
28 23 22 22 22 23 23 23 24 25 23 23 22 22 21 22 21 24 24 24 23 24 25 26 26 25 23 26 28 25 30 29 32 33 33 33 33 36
23 22 21 21 21 22 22 22 21 22 22 21 21 21 22 21 23 22 23 24 23 26 26 26 25 23 21 19 26 32 30 32 32 33 33 32 32 34
23 21 20 21 21 21 21 20 20 21 21 20 22 21 21 21 21 22 23 22 24 26 26 26 25 26 23 22 21 26 34 32 32 32 32 34 35 39
21 21 22 21 21 21 21 21 20 20 22 21 20 20 21 21 22 23 24 27 28 25 24 24 26 33 29 29 26 28 32 35 34 33 33 33 32 32
22 21 22 22 21 21 20 20 20 20 19 20 20 21 21 22 22 24 26 24 24 24 25 26 28 28 28 27 25 28 31 33 36 36 37 36 32 29
21 21 21 21 21 20 20 19 19 19 20 20 20 21 22 22 23 26 25 26 26 25 24 25 27 27 27 27 28 29 30 31 32 32 32 37 37 37

GFSNE_sfc_temp_033.txt.gz
Temp
33 33 33 34 34 33 33 32 29 24 26 32 32 37 38 39 41 42 41 45 47 48 48 49 49 49 49 50 50 50 51 52 52 53 54 53 54 55
36 33 32 33 33 32 32 32 32 28 24 32 34 36 38 40 41 41 41 44 45 46 47 47 47 47 48 48 48 49 50 49 50 50 51 52 53 54
33 33 32 33 32 32 32 32 31 31 26 31 35 36 36 36 38 39 40 39 40 43 44 45 46 46 46 46 46 46 47 48 49 49 49 50 51 52
32 31 32 37 31 31 31 30 31 32 29 27 31 33 34 36 36 35 38 40 36 40 43 44 44 45 45 45 44 44 45 46 46 47 48 49 50 50
32 31 32 31 30 31 31 31 31 35 33 31 29 33 34 35 34 34 33 34 37 40 42 42 42 43 43 43 43 43 43 43 44 44 45 45 46 47
33 32 31 31 30 31 33 34 35 32 32 30 30 31 32 32 32 30 29 32 32 36 38 39 40 41 42 42 42 42 42 42 43 44 44 44 45 46
31 31 33 35 39 39 37 34 33 31 30 29 29 28 27 28 27 29 28 30 31 31 30 32 33 33 34 37 38 39 39 40 41 42 42 43 43 44
30 31 31 36 35 39 39 39 38 34 30 29 26 26 26 27 28 28 27 26 23 32 29 28 31 30 31 32 37 38 39 40 41 40 41 42 42 43
29 31 32 35 35 32 35 38 37 36 37 31 27 26 26 28 28 26 26 25 25 29 29 25 29 27 30 33 37 37 38 39 40 40 40 40 41 42
30 30 29 30 31 35 34 31 30 31 31 32 31 31 31 32 32 30 27 27 28 30 30 21 27 25 29 30 35 36 37 38 39 40 40 40 41 42
30 31 32 32 36 39 34 29 30 30 34 36 36 37 36 36 35 29 25 23 21 25 28 25 25 24 26 28 31 35 37 38 39 40 41 41 40 41
31 31 36 35 38 38 34 30 25 27 28 29 29 30 31 30 34 30 26 21 21 20 27 23 23 24 22 29 29 30 30 35 37 38 39 40 41 38
31 31 32 36 37 37 37 29 29 33 31 26 26 27 28 29 29 29 28 24 22 21 27 26 24 23 23 22 27 29 30 30 30 31 35 37 39 39
31 31 31 36 36 35 33 34 35 33 26 25 24 25 24 24 25 26 27 27 27 25 27 26 23 23 22 22 22 28 28 29 28 27 28 32 35 36
33 35 35 34 33 30 31 33 32 26 24 23 23 22 23 24 25 25 26 27 27 28 28 27 26 26 25 23 23 24 25 27 28 26 27 28 29 30
33 30 31 31 30 29 28 28 26 26 26 23 22 23 24 23 23 24 23 23 23 25 30 30 29 28 25 26 25 23 25 23 27 28 29 30 31 31
32 27 25 24 23 24 24 25 25 25 23 22 21 21 21 22 22 24 23 23 21 23 24 28 30 30 28 26 23 26 27 28 32 32 32 32 32 32
27 22 21 21 21 22 22 22 23 23 22 21 21 20 19 20 21 23 23 22 22 23 24 27 27 26 28 26 29 26 30 31 33 33 33 31 32 32
22 21 20 20 20 21 21 21 20 21 21 20 19 19 21 19 21 21 21 23 24 25 26 27 25 24 23 22 28 35 29 31 32 33 33 32 32 35
22 20 19 20 20 20 20 20 20 20 20 19 20 20 19 19 19 20 21 22 25 26 25 27 26 26 25 23 24 28 34 32 32 31 32 33 35 41
21 20 21 20 20 21 21 20 20 19 21 20 19 19 20 20 19 21 22 27 29 25 24 25 27 33 29 30 28 30 33 35 35 32 33 32 32 34
21 20 21 21 20 20 19 19 19 19 19 19 19 20 20 20 20 21 22 24 25 25 25 27 28 28 27 27 26 29 30 33 36 36 36 35 31 28
20 20 20 20 20 19 19 19 19 19 19 19 20 20 21 21 22 23 23 26 25 25 24 24 26 26 27 27 28 28 29 29 32 32 33 37 36 36

GFSNE_sfc_temp_036.txt.gz
Temp
32 32 31 32 32 32 31 30 27 23 26 31 28 36 37 38 39 40 40 43 46 47 48 48 48 49 49 50 49 48 49 50 49 50 52 53 54 55
35 32 31 31 31 31 30 30 30 27 23 32 32 35 36 39 39 40 39 43 44 45 46 46 47 47 47 47 48 48 49 48 49 49 50 52 52 52
32 31 31 32 30 30 30 30 29 29 25 30 33 35 34 35 36 37 38 38 38 43 44 44 45 46 46 46 46 46 46 47 47 48 48 49 50 51
31 30 30 36 30 30 30 29 29 30 28 26 30 32 33 35 35 34 37 38 35 40 42 43 44 44 45 45 44 44 45 46 46 46 46 47 49 50
30 30 30 29 28 29 29 29 30 33 32 30 29 32 33 34 33 33 33 34 36 40 41 42 42 42 43 42 42 42 42 42 44 44 45 45 46 47
31 30 30 30 29 29 30 31 34 31 31 30 30 30 30 31 30 28 28 31 31 35 37 38 40 40 41 41 41 41 41 41 42 43 44 43 44 45
30 30 31 33 38 38 36 33 33 31 30 28 28 27 27 27 26 28 27 29 30 32 31 32 32 32 33 37 37 38 39 39 40 41 42 42 43 43
29 30 30 34 33 39 38 39 38 33 30 27 26 25 26 26 28 27 26 25 23 32 30 29 31 30 32 32 36 38 39 40 41 41 41 41 42 42
28 29 31 35 34 31 34 37 37 37 37 31 27 26 26 28 27 26 26 25 25 29 29 25 30 28 31 33 37 37 38 39 40 40 41 41 41 42
29 28 28 29 30 34 34 31 29 30 31 32 30 31 31 32 31 30 27 27 28 29 30 21 27 26 30 31 35 37 38 38 39 39 40 40 40 41
30 29 29 32 36 38 33 29 30 30 34 36 36 37 36 36 34 30 25 23 21 25 28 25 25 24 26 28 31 35 37 38 39 40 40 40 40 41
31 31 36 35 38 38 34 30 25 27 28 29 28 29 30 30 34 29 26 21 21 20 27 23 23 24 21 28 28 30 30 35 37 38 39 39 40 37
31 31 32 36 38 37 37 29 28 33 30 26 25 26 27 27 27 27 27 23 21 20 27 27 23 23 22 22 27 28 30 31 31 32 36 37 38 38
31 31 32 37 36 35 32 33 35 33 26 24 24 24 23 23 24 24 25 25 26 24 26 26 23 23 22 22 22 28 30 31 30 29 29 32 34 35
32 34 35 34 33 30 31 32 32 25 24 22 22 22 22 23 23 23 24 25 26 27 28 27 26 26 25 24 24 25 27 29 30 28 28 28 28 29
34 30 31 31 30 29 27 27 26 25 25 23 21 22 23 22 21 23 21 22 22 24 29 30 29 28 26 26 26 25 28 25 28 30 31 31 31 30
32 27 24 23 22 23 23 24 25 25 23 22 21 20 21 21 20 22 22 22 20 21 24 28 31 31 29 27 25 28 28 29 32 33 32 32 33 34
27 21 20 20 20 21 21 21 23 23 22 21 20 20 19 19 20 21 21 20 20 23 24 27 27 27 29 29 33 27 31 31 33 33 33 32 32 31
21 20 19 20 20 20 20 20 19 21 21 20 19 19 20 19 19 18 19 20 21 24 27 27 26 25 23 22 29 37 30 32 32 32 33 33 33 31
21 19 19 20 20 19 20 19 20 20 20 19 20 20 18 18 18 18 19 19 22 25 25 27 26 26 26 24 25 30 35 32 32 31 31 35 36 38
20 19 20 20 20 20 20 20 19 19 21 20 18 19 19 19 18 19 19 25 26 24 24 24 27 34 29 30 28 29 32 36 35 32 32 31 32 34
20 19 20 20 20 19 19 19 19 19 19 19 19 19 19 20 19 20 21 21 22 25 25 26 28 28 22 25 26 27 29 33 36 38 36 35 31 29
19 19 19 19 19 19 19 19 19 19 19 19 19 20 20 20 22 22 23 24 25 25 25 23 25 23 18 21 27 27 28 29 31 31 33 37 36 36

GFSNE_sfc_temp_039.txt.gz
Temp
43 42 41 42 42 42 41 39 35 30 33 39 39 44 44 44 44 45 44 44 45 46 46 47 47 48 48 48 49 49 49 49 50 49 50 51 52 52
43 41 41 41 41 41 40 39 38 35 31 38 39 41 42 43 43 43 43 43 43 44 45 45 46 47 47 47 47 48 48 49 49 49 50 51 51 53
41 40 39 40 40 40 39 39 37 37 32 36 39 41 40 40 42 43 42 42 43 43 44 44 44 45 45 46 46 46 46 47 47 48 49 49 49 49
39 38 38 40 38 39 38 37 36 37 34 31 35 38 39 40 40 39 41 42 41 42 42 43 43 44 44 44 45 45 45 45 46 46 46 47 48 48
38 37 37 37 36 37 37 36 36 37 36 34 34 38 38 39 38 39 38 39 40 40 41 41 42 42 43 43 43 44 44 44 44 44 45 45 46 47
38 38 37 37 36 36 36 37 37 36 36 34 34 32 35 38 36 34 34 37 37 39 39 40 40 41 41 41 41 41 41 41 42 43 43 43 43 44
38 38 38 38 39 39 38 37 37 35 34 32 30 33 32 33 32 34 33 34 35 37 36 37 39 39 39 39 39 39 39 39 40 41 42 42 43 43
36 38 38 37 37 39 39 39 38 35 32 31 30 30 32 33 34 32 30 29 26 37 35 33 38 36 38 39 38 39 39 40 41 41 41 41 42 43
37 37 36 37 37 36 37 38 38 37 38 35 32 31 31 33 31 29 29 29 28 33 32 29 36 34 38 38 38 38 39 39 40 40 41 41 41 42
37 36 35 35 36 36 37 33 33 36 36 36 35 35 34 35 35 33 31 30 32 34 35 25 33 32 35 36 37 37 38 39 39 40 40 40 41 41
37 37 36 36 38 39 35 32 34 34 37 37 37 37 36 36 35 32 28 25 24 28 33 29 30 30 31 33 37 37 38 39 39 39 40 40 41 41
37 37 37 37 38 38 36 34 30 31 31 32 33 33 33 33 34 32 29 23 23 22 32 26 27 28 25 34 35 36 36 37 38 38 38 38 39 37
35 35 36 37 37 38 37 33 31 34 33 31 30 31 31 32 32 31 30 25 23 23 30 28 26 27 26 26 31 34 35 36 36 36 37 37 37 37
34 35 35 37 36 35 34 33 35 34 30 28 27 27 27 27 28 28 28 27 28 25 27 27 25 25 25 25 26 33 34 35 35 34 35 36 37 37
35 36 36 35 33 31 31 33 32 29 27 25 25 25 26 26 26 26 27 27 27 28 29 29 27 27 27 26 27 29 30 33 35 33 33 33 33 33
35 34 33 31 30 30 29 29 29 28 27 25 24 26 26 25 25 26 24 25 24 26 31 31 31 30 29 30 29 29 32 29 34 34 34 34 34 33
34 30 28 26 25 26 26 27 27 27 25 25 24 24 24 24 24 25 24 24 22 23 25 30 33 33 33 31 29 32 32 32 33 33 33 32 34 32
29 25 24 24 23 23 23 24 25 25 24 24 23 23 22 22 22 24 24 22 22 23 25 29 31 30 32 35 38 32 33 32 33 33 34 33 32 33
24 23 22 22 22 22 22 22 22 24 23 22 22 22 22 23 22 22 22 23 23 24 27 30 29 28 26 26 35 38 31 32 32 33 33 33 33 32
23 22 21 22 22 21 22 22 22 22 22 22 22 23 21 21 21 21 22 21 23 26 27 29 30 29 27 27 27 32 36 32 32 32 32 34 36 38
22 21 22 22 21 22 22 22 21 21 22 22 21 21 22 22 21 22 23 26 27 26 25 28 30 34 31 32 31 32 34 37 36 32 33 32 31 33
22 21 22 22 21 21 21 21 20 21 21 21 21 22 22 22 22 22 24 24 26 27 27 30 32 31 30 30 28 30 32 35 37 38 37 35 31 29
21 21 21 21 21 21 21 20 20 20 21 21 21 22 23 22 24 25 26 26 27 28 29 28 30 30 29 28 29 30 31 32 33 34 35 37 36 37

GFSNE_sfc_temp_042.txt.gz
Temp
50 49 48 49 48 48 47 45 41 36 39 46 46 51 50 49 48 48 48 47 47 47 47 47 47 48 48 49 49 50 50 50 50 50 51 52 52 53
49 48 48 48 47 47 46 45 44 40 36 44 45 47 48 47 47 48 48 46 46 46 46 46 46 46 46 47 47 48 48 49 49 50 50 50 51 52
48 46 45 46 45 46 45 44 43 42 38 41 44 46 44 45 46 47 46 45 47 46 46 45 45 45 45 46 46 46 47 47 47 48 49 50 50 50
46 45 44 45 44 44 44 42 42 42 39 36 40 41 42 44 44 42 45 46 45 45 45 44 44 44 44 45 45 45 45 46 46 47 47 47 48 49
45 44 43 43 42 43 42 41 41 41 40 37 37 42 43 42 42 43 42 43 45 44 44 44 44 44 44 44 44 45 45 45 45 45 45 46 47 47
45 44 43 42 41 41 41 41 41 39 40 39 38 37 37 41 41 39 38 41 40 43 43 43 43 43 43 43 43 43 43 43 43 43 44 44 44 45
45 44 44 42 40 40 40 39 39 38 36 35 34 35 36 37 37 38 37 38 39 40 40 41 42 42 42 42 42 42 42 42 42 42 42 43 43 44
42 43 43 42 41 41 41 40 39 35 32 33 33 33 35 37 38 36 33 31 29 40 38 36 41 39 41 42 42 42 42 42 42 42 42 42 43 43
42 42 41 42 41 40 40 40 40 40 39 38 35 35 35 36 34 31 32 31 31 37 36 32 39 38 41 43 41 41 41 41 41 41 41 42 42 42
42 41 40 40 40 40 39 36 36 39 40 40 38 37 37 36 36 36 34 32 34 37 37 28 37 35 39 41 40 40 40 41 41 41 42 42 42 42
42 42 41 40 40 40 37 33 37 38 41 40 39 39 39 39 37 34 30 28 27 31 36 32 34 33 34 35 40 41 42 42 41 41 41 41 40 40
41 42 41 40 40 39 37 36 34 36 35 34 37 38 38 38 37 35 32 26 26 25 34 30 30 30 26 36 38 39 40 40 41 41 42 41 40 37
38 39 40 39 39 39 38 36 34 36 34 35 35 35 36 35 36 35 33 28 25 25 32 30 27 28 27 28 33 36 38 39 41 40 41 41 41 39
37 38 39 38 37 36 36 35 35 35 34 32 31 31 31 31 31 32 31 30 30 27 30 28 25 26 26 26 28 35 36 37 38 37 38 40 40 41
37 38 38 37 35 34 34 34 33 33 31 28 27 28 30 30 29 29 30 31 30 30 31 30 29 28 28 27 28 31 33 35 37 35 35 34 34 35
37 37 36 35 34 34 33 34 33 32 30 28 28 29 30 29 28 30 27 27 26 28 32 32 31 30 29 32 31 30 33 30 35 34 34 34 35 35
36 34 33 32 31 31 31 31 32 32 28 28 27 27 27 28 27 29 27 27 25 25 27 32 33 33 34 32 30 33 34 34 35 33 33 33 34 35
31 30 29 29 28 28 27 27 28 28 28 27 26 26 25 25 26 27 28 26 24 26 27 30 31 31 34 36 40 35 34 33 34 34 34 32 33 36
29 28 27 27 26 26 26 26 26 27 26 26 25 25 25 26 25 25 26 26 26 28 28 31 30 29 28 26 35 40 33 33 33 34 34 33 32 34
28 26 26 26 26 25 25 25 26 26 25 25 25 25 24 24 24 25 26 25 26 28 29 31 31 31 28 27 28 32 36 33 32 32 32 34 35 37
26 26 27 26 25 25 25 25 25 24 24 24 24 24 25 25 25 26 26 28 29 28 27 29 32 36 33 33 31 34 36 38 37 33 33 32 31 33
26 25 26 26 25 25 24 24 24 24 24 24 25 25 26 26 25 26 27 27 28 29 29 32 33 33 32 31 30 31 34 36 39 39 39 35 31 28
25 25 25 25 25 25 24 24 23 23 24 24 24 25 26 25 28 28 29 30 30 30 31 30 33 34 32 32 31 32 32 33 34 35 36 37 37 37

GFSNE_sfc_temp_045.txt.gz
Temp
51 50 49 49 49 48 47 45 40 34 37 44 45 50 49 49 49 48 47 48 49 49 49 49 49 49 49 49 49 49 49 50 50 51 52 52 52 53
50 49 48 48 48 47 46 45 44 39 34 42 44 46 47 48 47 47 47 48 48 48 48 48 48 48 48 48 48 48 48 49 49 50 50 51 51 52
49 48 47 47 45 45 45 44 42 41 36 39 43 45 43 42 45 45 46 45 44 47 47 47 47 47 47 47 47 47 48 48 49 49 49 49 50 51
47 46 45 47 44 44 44 42 41 42 38 35 39 39 40 43 43 42 44 46 44 46 47 47 47 47 46 46 46 46 47 47 47 48 47 48 49 49
47 45 44 44 42 42 42 41 41 42 40 37 36 40 40 41 40 41 41 42 45 45 46 46 45 45 46 46 46 46 46 46 46 46 46 46 47 48
47 46 45 43 42 41 40 39 40 38 38 36 35 34 36 38 38 36 36 39 38 42 43 43 44 44 45 45 45 44 44 44 45 45 45 45 45 45
46 46 45 44 43 42 40 38 38 36 34 32 32 33 32 34 34 36 34 35 35 37 36 37 39 38 39 42 42 43 43 44 44 45 45 44 44 44
43 44 44 43 43 43 42 42 41 36 32 31 31 31 32 34 35 33 31 29 27 37 35 33 36 35 37 38 42 43 43 43 43 44 44 44 44 44
42 42 42 43 42 41 41 42 41 41 40 36 33 33 33 34 32 29 30 30 29 33 33 29 35 33 37 40 41 42 43 43 43 43 43 43 43 44
43 42 41 40 41 40 39 35 35 36 38 40 37 36 36 36 33 33 32 31 32 33 35 26 32 31 35 37 40 41 41 42 43 44 44 44 44 43
42 42 41 40 42 42 38 33 34 36 41 41 40 40 40 41 40 35 28 27 25 28 32 29 29 30 31 31 35 41 42 43 42 43 43 44 44 43
40 40 42 41 42 41 37 35 31 33 33 33 35 36 38 37 39 36 32 26 25 24 30 27 26 27 23 31 32 33 35 39 41 42 43 43 42 39
36 37 39 40 40 40 39 35 33 35 34 33 33 33 33 33 34 34 33 28 25 24 30 29 25 25 24 24 29 31 33 34 36 37 41 42 42 41
36 37 37 39 39 38 37 36 37 36 32 31 30 29 29 29 30 31 31 30 29 27 29 28 25 24 23 23 24 30 32 33 35 35 36 38 40 40
37 38 38 38 37 36 36 36 36 32 31 28 27 27 28 29 29 28 30 30 30 29 29 29 27 27 26 25 25 27 30 33 34 34 34 34 35 35
36 35 36 36 36 35 34 34 32 32 30 28 26 27 28 27 27 28 26 27 25 26 30 30 30 29 27 28 28 28 31 29 34 34 34 34 36 37
35 32 32 32 30 30 30 30 30 30 28 27 26 25 25 26 25 27 26 26 24 24 26 29 31 32 31 30 28 30 31 33 35 34 33 32 35 37
31 29 28 28 27 27 27 27 27 27 27 26 25 25 24 23 24 26 26 24 24 25 26 28 29 29 30 33 38 32 32 32 34 34 34 31 32 36
28 27 26 26 26 26 26 25 24 26 26 25 24 23 24 24 24 23 24 24 24 25 26 29 29 27 25 24 32 39 31 31 32 32 34 33 32 34
27 26 25 26 26 25 25 24 24 25 24 24 24 24 24 23 23 23 24 24 24 25 27 29 29 28 26 26 27 31 36 32 32 31 32 34 35 39
26 25 26 25 25 25 24 24 24 23 24 24 23 23 24 24 23 24 25 28 29 27 26 27 30 37 33 32 29 30 34 38 37 32 32 32 31 32
26 25 25 25 25 24 24 24 23 23 23 23 23 24 24 24 24 24 25 25 26 27 28 30 32 31 31 30 28 29 32 35 38 39 39 36 32 29
25 25 25 24 24 24 24 23 23 23 23 23 23 24 24 24 25 26 27 28 28 29 29 29 29 31 31 31 31 30 30 31 33 32 34 38 37 38

GFSNE_sfc_temp_048.txt.gz
Temp
41 41 40 40 40 39 38 37 32 29 31 33 34 41 40 40 42 44 43 47 49 49 50 50 50 50 50 50 51 50 50 50 50 50 51 51 52 53
42 41 40 40 39 38 37 36 35 31 29 35 37 36 38 43 44 44 43 47 47 48 48 48 49 49 49 49 49 49 49 49 50 50 51 51 52 52
41 40 40 40 37 36 36 35 34 32 31 35 37 38 35 36 40 40 42 41 42 46 47 48 48 48 48 48 48 49 49 48 49 49 50 50 50 51
40 39 39 43 36 36 34 34 33 33 32 31 35 35 34 36 38 37 40 43 41 45 46 47 47 47 47 47 47 47 48 48 48 48 48 49 50 50
40 38 38 37 34 34 33 32 32 37 33 32 31 35 35 36 35 37 37 38 41 44 45 45 45 45 45 45 46 47 46 46 46 47 47 47 48 48
40 39 38 37 35 33 34 32 34 31 32 31 31 30 32 34 33 32 32 34 35 39 40 41 42 43 43 44 44 43 44 44 45 46 46 46 46 47
38 39 39 40 44 42 39 32 32 31 30 29 29 30 31 31 30 32 31 32 33 34 33 34 35 35 36 39 40 41 42 44 45 45 46 46 46 47
35 36 37 41 40 44 43 43 41 35 31 29 29 29 29 30 32 30 29 26 25 34 29 31 33 32 34 35 40 42 43 43 44 45 45 45 45 46
34 35 36 41 39 35 39 42 40 41 40 35 31 30 30 32 28 27 28 28 28 31 30 27 32 30 33 36 39 40 42 42 43 43 44 44 45 45
34 34 33 33 34 38 36 29 30 31 33 36 34 34 33 34 35 32 31 30 30 31 31 24 30 29 32 33 38 39 40 41 43 44 44 44 44 44
35 34 35 34 39 42 36 29 31 31 38 39 39 39 40 40 39 34 27 26 25 28 31 27 27 27 28 29 32 38 40 41 40 41 42 43 43 44
31 33 39 39 41 41 36 34 29 29 30 30 32 32 34 31 37 31 29 25 24 23 27 24 25 25 22 28 27 31 31 36 38 39 41 42 42 40
29 31 32 39 40 40 40 32 31 35 34 30 29 29 30 30 30 30 31 28 24 23 29 28 24 24 24 22 26 29 30 31 32 34 38 40 41 41
31 31 31 38 39 39 37 37 38 37 29 28 27 26 26 26 27 28 28 28 28 27 29 28 25 24 23 22 22 28 30 30 31 32 34 38 40 41
33 36 38 37 37 34 36 37 36 28 27 25 24 25 25 26 26 26 27 27 26 27 29 28 26 25 25 23 23 25 27 30 32 31 33 34 34 36
34 29 34 34 35 34 31 30 28 28 27 26 24 26 26 25 24 25 24 24 23 24 28 27 27 27 25 26 27 26 28 27 32 33 34 34 35 36
34 28 27 26 25 26 27 27 27 27 25 25 24 24 24 24 23 24 24 24 22 22 23 27 30 31 30 28 26 28 29 30 32 32 33 32 34 35
28 24 23 24 23 24 24 24 25 25 24 24 24 23 22 22 22 23 25 22 21 22 23 26 27 27 28 31 36 29 30 29 31 33 32 30 32 35
24 21 22 22 23 23 22 22 21 23 24 23 22 22 22 22 24 22 22 22 22 23 24 26 26 26 23 22 31 39 30 30 31 31 33 32 31 33
22 21 21 22 22 22 22 22 22 23 23 22 22 23 22 22 21 21 22 22 23 24 25 26 27 27 26 25 26 30 36 32 31 30 31 34 35 39
22 22 23 22 22 22 23 22 22 22 23 23 22 22 23 22 22 22 23 27 28 25 24 25 29 36 31 31 27 29 33 38 36 32 32 31 31 32
22 22 22 22 22 22 22 22 22 22 22 22 22 23 23 23 22 23 23 23 24 26 26 28 32 31 29 27 26 27 30 33 37 38 38 36 31 29
21 22 22 22 22 22 22 22 21 21 22 22 22 23 23 23 24 24 24 25 26 27 29 28 29 30 28 27 29 29 29 30 31 32 33 39 39 37

GFSNE_sfc_temp_051.txt.gz
Temp
41 40 39 39 39 38 37 35 31 26 29 30 32 36 37 37 40 41 40 45 48 48 49 49 50 50 50 51 51 50 51 50 50 51 52 52 53 54
41 40 38 38 38 36 35 35 33 29 27 31 33 33 35 40 41 42 41 45 45 46 47 48 48 48 49 49 49 50 49 50 50 51 51 51 52 52
41 39 39 38 36 35 34 33 32 30 28 31 32 34 32 33 36 37 38 39 40 45 46 46 47 48 48 48 48 48 48 49 49 50 50 50 50 51
40 39 39 42 36 35 33 32 30 30 28 29 31 32 32 33 35 34 38 41 39 42 45 46 46 46 46 46 47 46 47 47 48 48 48 49 49 50
40 39 38 37 34 33 32 30 30 35 30 29 30 33 32 33 33 34 34 35 38 42 43 43 44 44 44 45 45 45 45 45 45 46 46 47 48 48
39 38 37 35 33 32 32 31 33 29 28 28 29 28 31 34 32 30 30 33 33 38 39 40 42 42 43 43 42 42 42 43 44 45 45 45 46 47
37 37 37 38 43 42 38 31 30 28 27 26 27 28 31 30 28 30 29 31 32 33 32 33 33 34 34 38 39 40 40 43 44 44 45 45 45 46
33 34 34 39 39 43 43 43 41 33 25 24 28 29 28 28 30 30 28 26 25 34 31 31 33 31 33 33 38 40 41 42 42 43 43 44 45 45
32 33 34 39 36 33 37 41 40 41 40 34 29 28 28 30 28 26 27 28 28 31 30 28 32 30 32 35 38 39 40 41 41 42 43 44 45 45
33 32 31 31 32 37 33 30 31 30 31 33 32 32 32 34 34 32 31 29 29 31 31 24 30 28 31 31 37 38 39 40 41 42 42 42 43 43
33 32 33 31 38 41 35 28 29 30 37 39 39 39 39 39 38 33 26 24 23 26 30 27 26 26 27 28 31 36 39 39 39 40 40 41 42 42
30 31 37 37 40 41 36 33 28 28 29 28 30 31 33 30 36 30 27 23 22 22 27 24 24 24 22 23 25 29 29 35 37 38 39 40 40 38
28 29 30 38 39 40 39 31 31 35 33 27 28 28 29 29 29 29 28 26 23 22 28 28 24 24 23 23 26 28 29 29 31 32 36 38 39 39
29 29 30 37 38 38 35 37 38 36 28 27 26 25 25 25 26 27 27 27 26 25 27 26 23 23 22 21 21 26 28 29 29 29 30 34 37 39
31 34 37 36 35 32 34 35 34 27 26 23 23 24 24 25 25 25 25 25 24 25 27 27 25 24 23 22 22 24 26 28 30 29 28 31 33 35
33 28 33 32 32 31 29 29 27 26 26 25 23 24 25 25 23 24 22 23 22 23 28 26 25 25 23 24 25 24 27 25 29 30 32 33 33 34
32 26 25 25 24 25 26 26 26 26 24 23 23 23 23 23 23 24 22 22 21 21 22 25 27 27 26 26 24 26 26 27 29 30 30 30 32 34
26 23 22 22 22 23 23 23 23 24 23 23 22 22 21 21 21 23 24 22 20 21 22 23 24 24 25 29 33 27 28 28 30 30 31 29 30 34
23 21 20 21 21 21 21 20 20 22 22 22 21 21 21 21 23 21 21 21 21 22 22 24 25 24 21 21 30 38 29 29 30 30 31 31 30 32
21 20 20 21 21 20 20 20 21 21 21 22 22 23 23 22 21 21 21 21 21 22 24 25 25 25 24 24 26 30 35 29 29 29 30 33 35 38
20 20 21 21 20 21 21 21 21 21 23 23 21 22 23 22 21 22 22 26 27 23 22 24 27 34 32 30 26 27 31 36 35 31 31 30 30 32
21 20 21 21 21 21 20 21 20 20 20 21 21 22 23 23 22 22 23 22 23 23 24 26 29 29 28 26 25 25 28 32 36 37 38 36 30 28
20 21 21 21 21 21 21 20 20 20 21 22 22 23 23 23 25 25 24 24 24 24 26 27 28 29 28 27 28 27 28 29 30 32 34 39 39 39

GFSNE_sfc_temp_054.txt.gz
Temp
43 42 39 38 37 37 36 35 32 27 28 32 32 35 36 35 38 40 37 43 46 47 47 48 48 49 50 50 51 51 50 51 51 52 53 53 53 54
42 41 38 37 36 35 34 34 32 29 26 30 32 32 35 39 39 40 38 43 43 45 46 46 47 47 48 49 48 49 50 49 50 51 52 52 52 53
42 41 38 38 37 34 33 33 31 29 26 29 30 32 30 31 34 35 36 36 37 43 44 45 46 47 47 47 48 48 48 48 49 49 50 51 51 51
39 38 38 42 35 34 32 31 30 29 27 27 29 28 29 31 31 31 35 38 37 41 43 44 45 45 45 46 46 46 46 47 47 48 49 49 50 50
40 38 37 35 33 32 31 30 29 33 28 27 28 29 29 29 31 32 31 33 36 40 42 43 43 43 44 45 45 45 45 45 45 45 46 47 47 48
38 36 36 35 34 32 32 31 32 29 28 27 28 27 26 30 29 29 29 32 32 37 38 40 41 42 43 43 42 42 42 42 43 44 45 45 45 46
35 35 35 38 42 41 37 32 30 29 28 24 26 22 24 28 28 29 28 30 31 32 31 31 32 31 34 38 38 39 39 41 43 44 44 44 44 46
32 33 33 37 36 41 42 43 41 32 23 21 21 25 27 28 29 28 27 25 25 32 28 30 32 31 32 33 38 40 41 41 42 42 43 43 43 44
30 30 32 37 34 32 36 40 39 41 41 35 29 27 27 28 28 25 26 27 27 30 29 26 30 29 32 34 38 39 40 40 41 42 42 43 43 44
30 30 29 30 31 35 33 29 30 30 31 32 30 30 31 32 33 32 30 28 28 30 30 23 29 27 31 31 36 38 39 39 40 41 42 42 42 43
31 31 32 31 36 40 34 28 29 30 36 39 39 39 39 39 38 31 25 24 22 25 29 25 25 25 27 28 31 36 38 39 40 40 40 40 41 42
30 31 35 35 39 40 35 30 26 28 29 28 28 30 32 30 35 30 25 22 21 21 25 22 24 24 22 23 27 27 30 34 36 37 38 39 40 37
28 29 30 37 38 39 39 29 30 34 30 26 27 27 28 27 28 28 27 24 22 22 28 27 23 23 23 22 25 27 28 29 29 31 35 37 38 38
29 29 29 37 37 36 34 35 37 34 27 26 25 24 24 24 25 26 27 26 26 25 26 25 22 21 21 20 21 26 26 27 28 27 28 33 36 38
30 34 36 35 34 31 33 34 33 25 25 22 22 23 23 24 25 25 26 25 23 24 26 25 24 23 22 21 20 23 24 26 28 27 27 26 27 31
32 26 31 31 31 30 28 28 27 26 25 23 22 24 25 25 24 24 22 23 22 22 26 26 23 22 21 22 23 22 25 23 27 28 28 28 31 33
29 25 24 24 23 24 24 25 25 25 23 22 22 23 23 23 22 23 22 21 19 20 21 24 25 25 24 24 22 24 24 24 26 28 29 28 30 33
25 22 20 21 21 21 21 22 22 23 22 22 22 21 20 20 21 22 23 21 19 20 20 22 23 23 24 27 30 24 25 26 29 30 30 28 29 33
21 19 19 20 20 20 20 19 19 21 21 21 20 20 21 21 23 21 21 21 20 21 21 22 23 23 20 19 29 37 28 29 29 29 30 29 28 31
19 18 18 19 20 20 20 19 20 20 20 20 21 22 22 20 20 21 21 20 20 22 23 25 24 23 22 23 24 30 35 29 28 27 28 31 33 37
19 19 20 20 20 20 20 20 19 19 22 21 20 21 21 21 21 22 22 26 27 24 21 23 27 33 30 29 25 28 31 36 34 29 30 29 29 30
20 19 20 20 21 20 20 20 19 19 19 20 21 22 23 24 22 22 23 23 24 24 25 26 28 29 28 26 25 26 28 32 36 37 36 34 30 28
19 20 20 20 20 20 20 20 20 19 20 21 22 23 24 24 25 25 26 26 26 26 27 27 29 30 29 27 28 27 28 29 31 31 33 39 40 39

GFSNE_sfc_temp_057.txt.gz
Temp
43 42 42 40 40 39 36 34 32 27 27 30 32 34 34 35 37 37 35 42 45 46 46 47 47 48 49 50 50 51 52 51 52 52 52 53 54 54
43 42 41 39 37 38 37 35 32 30 26 29 30 31 33 37 37 38 35 42 42 44 45 45 46 47 48 48 49 49 49 50 51 51 51 53 53 53
42 41 41 41 39 35 34 32 30 29 26 29 29 31 30 31 33 33 34 34 35 42 43 44 45 46 47 47 47 48 48 48 49 50 50 50 51 52
41 40 40 42 38 36 35 31 30 29 27 27 27 27 28 30 30 29 34 37 35 40 42 43 44 45 45 45 46 46 46 46 47 48 48 49 50 50
40 38 38 38 36 34 33 30 30 33 28 26 27 27 28 28 27 29 30 31 35 39 41 42 42 43 43 44 45 45 45 45 45 45 46 47 48 49
39 38 38 37 35 34 33 31 32 28 27 27 28 26 26 28 26 27 28 30 30 35 37 39 40 41 43 43 42 42 42 42 43 44 44 45 45 47
37 37 36 37 41 40 37 30 29 28 28 25 25 23 21 25 27 29 27 29 29 31 30 29 30 31 33 37 38 39 39 41 42 44 44 45 44 45
33 32 32 36 35 40 41 42 40 31 22 21 19 23 26 26 29 27 27 25 24 30 26 29 31 30 32 32 37 39 41 42 42 43 43 43 43 43
31 30 32 35 33 31 36 40 39 41 40 34 28 28 27 28 28 26 27 25 27 30 29 26 30 28 31 33 38 39 40 40 41 42 42 43 43 43
31 29 28 29 30 34 32 29 29 30 31 32 29 30 30 31 31 31 30 28 28 29 29 22 28 27 30 31 37 38 39 40 40 41 42 43 43 43
30 30 31 29 35 39 33 29 30 30 36 39 39 39 39 39 38 31 24 23 22 25 28 25 24 25 28 28 31 36 38 39 40 41 41 40 41 41
30 30 35 34 38 40 36 29 25 27 28 27 28 29 31 29 35 29 24 20 22 21 24 20 24 23 20 23 23 27 30 34 36 37 38 39 39 37
29 29 30 36 38 39 38 27 29 33 29 25 26 26 27 27 28 27 27 22 22 21 28 27 22 23 22 21 23 26 28 29 29 30 34 36 37 37
29 29 29 36 36 36 33 34 36 34 26 25 24 23 23 24 24 25 26 26 27 25 26 26 22 20 20 19 20 25 26 27 27 27 27 31 35 37
30 33 34 34 33 29 32 34 33 24 24 22 21 22 23 23 23 23 25 25 24 25 26 25 23 23 22 20 20 22 23 25 27 25 26 25 26 27
30 25 30 30 30 29 28 27 26 25 24 23 21 23 23 22 22 23 21 22 21 21 25 25 22 22 21 22 22 21 24 22 25 26 26 27 28 30
28 24 23 22 21 23 23 24 24 24 22 21 21 22 22 22 21 22 21 20 19 19 21 23 24 24 23 23 21 23 23 23 25 25 25 26 29 30
24 20 19 19 20 20 20 21 21 22 21 21 21 20 20 20 20 22 23 21 19 20 20 22 22 22 23 26 29 23 24 24 26 28 29 27 28 31
20 17 17 18 19 19 19 19 18 20 19 19 18 19 19 20 23 20 20 21 20 21 22 23 22 22 20 19 28 36 27 28 29 28 29 29 28 30
18 17 17 19 19 19 19 19 19 19 19 19 19 21 21 20 20 20 21 21 21 23 24 26 25 24 22 22 24 29 35 29 28 27 28 30 32 36
18 18 19 19 19 20 20 19 18 18 21 21 19 19 21 22 22 23 23 27 27 25 23 24 28 35 30 29 25 28 32 36 33 29 29 28 28 29
18 18 19 19 19 19 19 18 18 18 18 19 20 21 23 24 23 23 24 24 25 26 26 28 31 30 28 27 26 27 28 32 36 37 37 34 30 27
17 18 19 19 19 18 18 18 18 19 19 20 20 23 24 24 26 26 25 26 28 27 28 27 28 30 28 27 28 27 28 30 31 32 34 39 39 39

GFSNE_sfc_temp_060.txt.gz
Temp
44 44 42 41 41 41 40 39 37 30 29 33 36 37 34 34 37 37 35 41 45 46 46 47 47 47 48 49 50 51 51 52 51 52 54 54 54 54
43 43 41 41 40 39 37 37 35 34 28 30 32 33 34 37 37 38 35 42 43 44 45 45 45 46 47 48 49 49 50 51 51 51 52 53 53 53
43 42 40 40 38 37 36 36 35 33 28 30 30 31 31 32 34 32 33 31 33 41 43 44 44 46 46 47 47 48 49 49 49 50 50 51 51 52
40 39 38 40 37 37 36 35 35 31 29 27 28 28 28 30 30 28 34 37 35 39 42 43 44 44 45 45 46 46 46 46 47 48 48 49 49 50
38 37 37 36 36 36 35 34 31 34 29 27 26 27 27 27 27 28 28 30 33 38 41 41 42 43 43 44 45 45 45 45 45 46 46 47 48 49
37 37 36 36 35 34 35 33 32 29 28 27 27 24 26 28 25 26 27 29 30 34 37 38 40 41 42 43 43 42 42 42 43 44 44 45 45 46
33 33 32 34 40 39 37 33 31 29 27 22 25 24 21 24 26 29 27 28 29 29 30 29 30 30 32 37 38 39 39 40 42 43 44 45 44 45
31 33 34 36 36 38 40 41 39 31 23 21 19 22 25 25 25 27 26 25 25 30 26 30 32 30 32 32 37 39 40 42 42 43 43 44 43 43
33 33 34 36 33 31 35 39 38 40 40 33 27 26 26 28 28 25 27 26 27 30 29 26 30 28 31 33 37 39 40 41 41 42 43 43 43 43
32 30 28 29 30 34 32 30 30 30 31 31 28 29 28 30 30 31 29 28 28 29 28 22 28 27 30 30 36 38 39 40 41 41 42 43 43 43
32 30 31 30 35 39 33 29 29 29 35 38 38 38 38 38 37 30 24 23 22 25 28 24 24 24 27 29 31 36 39 40 40 41 41 40 41 41
31 30 35 34 38 39 35 28 24 25 27 26 28 29 30 28 34 28 23 19 21 21 24 22 20 24 19 23 23 27 31 35 37 37 38 39 39 37
29 30 30 36 38 38 37 27 27 31 29 24 25 25 26 26 27 27 26 20 21 21 27 27 19 23 22 21 23 26 27 28 28 30 34 35 36 36
29 29 29 36 35 35 33 34 36 33 25 24 23 22 22 23 24 25 25 24 25 24 26 26 22 19 20 19 19 25 25 26 27 27 27 31 34 36
31 32 34 33 32 29 31 33 32 23 23 21 21 22 22 22 23 22 23 23 21 23 25 24 23 22 21 19 19 21 22 25 27 25 25 25 25 27
30 25 30 29 29 29 27 26 25 24 23 22 20 22 22 19 21 22 20 21 20 21 24 22 21 22 20 21 21 20 23 21 24 25 26 26 27 27
27 23 21 21 20 22 22 23 23 23 21 21 20 21 21 21 21 21 20 20 19 19 21 24 25 25 24 23 21 22 23 23 24 24 24 24 27 28
23 19 18 18 19 20 20 20 21 21 20 20 19 19 18 18 19 21 22 20 19 20 20 22 23 23 24 27 29 22 23 23 25 27 27 25 26 31
19 16 16 18 18 19 18 18 17 19 17 17 17 17 18 20 23 20 20 21 21 22 23 25 24 24 21 20 29 37 26 27 28 28 29 29 27 30
17 16 16 18 18 18 18 17 18 18 17 17 17 20 20 20 21 21 22 21 22 24 25 27 26 26 24 24 25 30 35 28 28 27 28 30 32 36
16 17 18 18 18 18 19 18 17 17 20 20 18 19 21 22 22 23 23 27 28 26 24 25 29 35 31 30 26 28 32 36 33 30 30 29 28 30
17 17 18 18 18 18 18 17 17 17 16 17 19 21 22 23 23 25 26 25 25 26 26 29 31 30 28 27 26 27 29 32 36 37 38 36 31 28
16 17 17 18 18 18 17 17 17 19 18 19 20 22 23 24 27 27 27 26 27 28 29 28 30 30 29 27 28 27 27 29 31 32 33 39 39 39

GFSNE_sfc_temp_063.txt.gz
Temp
46 44 42 45 44 45 43 43 41 36 37 40 39 42 44 46 46 48 47 45 46 47 47 47 47 48 48 49 50 51 51 52 53 53 53 54 54 55
45 44 42 43 40 41 40 38 38 36 34 37 39 40 41 44 44 46 45 43 44 45 45 46 46 46 47 48 49 50 50 51 51 52 53 52 53 53
44 42 41 40 39 38 37 36 35 35 31 35 40 42 41 42 43 44 43 43 44 43 44 45 45 45 46 47 47 48 49 49 49 50 50 51 51 52
41 40 39 40 37 36 35 34 35 35 35 34 39 39 39 40 41 40 41 42 43 42 43 43 44 44 45 45 46 47 47 47 48 48 49 49 50 50
40 38 37 36 34 33 33 33 34 37 35 32 34 38 38 39 39 39 39 40 41 40 41 42 42 43 43 44 45 45 45 46 46 46 46 47 48 49
37 36 34 33 32 33 33 33 35 34 35 35 36 35 36 38 36 35 36 39 38 40 40 40 41 41 42 43 42 42 42 42 43 44 45 45 46 46
33 33 33 34 35 37 38 37 37 37 36 34 34 34 34 35 35 36 34 36 37 38 38 39 40 40 40 40 40 40 40 41 42 43 44 45 45 45
32 32 33 37 35 36 38 40 41 38 34 33 32 32 34 35 35 34 33 31 28 40 37 36 39 38 39 40 40 40 41 42 42 43 44 44 44 44
34 36 36 36 34 35 37 39 39 39 39 37 34 34 33 35 34 30 32 31 30 36 36 32 37 35 39 39 39 39 40 41 41 42 43 43 44 44
32 33 34 35 35 38 37 35 35 36 37 37 37 36 37 36 36 34 34 34 34 36 36 27 35 34 38 38 38 38 39 40 41 42 42 43 43 43
34 35 36 35 36 40 37 33 35 35 37 37 38 38 38 38 37 35 30 28 26 31 35 30 32 33 34 35 38 38 39 40 41 41 41 41 41 42
35 35 36 37 38 39 37 33 30 33 33 33 35 35 35 34 34 34 31 25 25 25 34 28 30 29 26 35 36 37 37 37 38 38 38 39 39 38
33 33 34 36 37 37 37 33 33 37 32 32 32 32 33 33 33 33 32 27 24 24 32 29 27 27 25 26 31 34 34 35 35 36 36 36 37 36
32 33 34 35 35 34 33 35 36 33 31 30 29 29 29 29 30 30 30 29 29 26 29 28 24 25 24 24 24 31 33 34 34 33 33 34 35 36
34 34 33 33 32 30 32 32 31 30 28 26 26 27 27 28 27 27 28 28 27 27 27 27 25 25 25 23 23 25 27 30 32 30 30 31 31 33
31 30 31 30 29 29 29 29 29 29 28 27 25 26 27 27 26 28 25 26 24 27 31 29 27 26 24 25 25 24 28 24 31 31 31 31 32 33
30 28 27 26 26 27 27 27 27 27 26 25 24 24 25 25 25 27 25 24 23 24 26 29 31 30 28 26 24 27 28 28 30 30 29 28 31 33
27 24 24 24 24 24 24 25 25 25 25 24 23 23 22 23 23 26 28 25 23 25 25 28 29 28 29 31 31 26 28 29 31 31 31 27 29 35
24 22 22 23 23 23 23 23 22 23 22 21 21 21 22 22 25 25 25 25 26 27 28 29 29 28 25 24 34 39 30 32 32 31 32 31 30 32
22 21 22 22 22 22 22 22 22 22 22 21 22 23 23 23 23 25 26 26 27 28 29 31 30 29 27 27 28 31 35 31 31 31 32 35 36 38
21 22 22 22 22 22 22 21 21 20 22 23 21 21 22 24 24 26 27 29 30 29 27 29 31 36 33 32 28 31 34 37 36 32 32 31 32 33
21 21 22 22 22 21 21 21 20 21 21 21 21 22 24 25 25 26 27 27 28 29 29 31 33 33 32 30 28 29 31 35 37 37 37 34 31 29
21 21 22 21 21 21 21 20 20 21 22 23 23 24 25 25 27 28 28 29 30 31 31 30 32 33 32 31 30 29 29 30 33 33 35 40 39 38

GFSNE_sfc_temp_066.txt.gz
Temp
50 48 46 44 46 44 44 47 45 39 39 40 40 44 44 44 45 47 49 49 48 47 48 48 48 48 48 49 50 50 51 52 53 54 54 54 55 55
44 43 42 42 43 41 41 40 40 37 37 37 36 37 38 41 44 46 49 47 46 47 47 46 47 47 47 48 49 50 50 51 51 52 53 53 54 54
44 41 39 41 40 40 39 38 36 36 34 34 34 35 38 41 47 47 47 47 48 47 47 46 46 46 46 47 47 48 49 49 50 50 51 52 52 53
43 41 40 42 38 38 37 35 34 33 33 32 36 36 39 41 41 42 45 47 46 46 45 45 45 45 45 46 46 46 47 48 48 49 49 50 50 51
42 40 39 38 36 35 34 33 33 33 34 34 35 39 39 42 42 44 44 44 46 45 45 45 45 44 44 45 45 46 46 46 46 47 47 48 48 49
38 38 37 36 34 33 34 34 35 37 39 38 39 40 41 42 41 40 40 43 42 45 45 44 44 44 44 44 44 43 43 43 44 44 45 45 46 46
34 34 34 35 36 36 38 40 39 38 38 36 37 39 39 40 39 40 38 40 41 43 43 44 44 44 45 45 44 44 43 43 43 44 44 45 46 46
32 32 34 37 38 37 38 39 41 39 36 36 35 36 39 40 40 39 37 33 30 43 41 40 44 42 44 45 44 43 43 43 43 43 44 44 45 45
33 34 35 38 36 38 38 39 40 40 40 40 37 38 38 40 37 33 33 32 32 40 40 36 41 40 43 45 44 43 42 42 42 42 43 43 44 44
37 36 38 38 38 39 40 39 39 40 40 40 40 40 41 41 38 37 37 37 39 41 41 32 40 38 42 43 43 42 42 42 42 42 43 43 43 43
36 38 38 39 38 40 40 36 38 39 40 39 38 39 39 39 39 37 33 33 30 34 39 35 37 36 38 38 41 42 41 41 41 41 42 41 41 42
39 39 36 38 39 39 38 37 34 36 37 37 39 40 40 39 37 37 35 28 27 28 39 31 33 32 29 37 39 40 40 41 40 40 40 40 40 39
37 37 38 36 37 36 36 37 35 38 37 37 38 38 39 39 38 38 37 31 27 27 35 32 30 30 28 28 34 37 38 38 40 40 40 40 39 38
36 37 37 35 35 34 35 35 36 35 36 35 34 34 34 34 35 34 33 32 32 30 32 31 26 27 25 26 26 34 36 37 37 36 37 38 38 38
37 35 34 33 33 34 33 32 33 35 34 32 32 32 32 32 31 31 33 33 32 32 31 30 28 27 26 25 26 28 29 33 34 33 33 33 34 35
34 36 33 31 31 32 33 34 34 34 33 32 31 32 32 31 31 32 30 30 28 30 34 33 31 29 26 28 27 27 31 27 32 33 33 33 34 34
33 34 33 33 33 33 33 33 33 33 31 31 29 29 30 30 30 32 30 29 27 27 28 33 34 33 31 29 26 29 30 31 33 32 32 30 33 34
32 31 31 31 30 30 30 31 31 30 30 29 28 28 27 27 28 30 31 29 27 28 28 31 32 30 32 34 35 29 31 31 33 34 33 30 31 37
30 30 29 29 29 29 29 29 28 29 27 26 26 26 26 27 28 28 29 29 29 30 31 32 32 30 26 26 35 40 32 33 33 32 33 33 32 35
28 28 28 28 28 28 28 27 27 27 27 26 26 26 27 27 26 28 29 28 28 30 30 33 32 31 29 28 28 33 37 32 32 31 32 35 37 39
28 28 28 28 28 27 27 26 26 25 26 26 26 26 26 27 27 28 29 31 31 30 29 30 33 37 34 33 30 32 36 37 37 33 33 31 31 33
28 27 28 28 27 27 26 26 25 26 26 26 27 27 28 28 27 28 29 29 29 30 30 32 35 34 32 31 30 31 33 36 38 38 38 36 31 29
27 28 28 28 28 27 26 26 25 26 26 26 27 28 28 27 29 29 30 30 30 31 32 32 33 34 32 32 32 31 32 32 34 33 35 39 39 38

GFSNE_sfc_temp_069.txt.gz
Temp
55 50 46 45 44 43 42 42 41 38 36 37 39 41 41 41 41 43 43 45 48 51 50 50 50 49 49 50 50 51 51 51 52 53 54 55 55 56
46 45 42 43 40 40 40 40 39 38 36 37 36 36 38 40 40 41 42 45 48 49 50 49 49 49 48 48 49 49 50 51 52 53 54 54 55 54
43 41 40 41 39 39 39 38 37 37 35 34 35 36 35 36 38 42 45 45 46 49 49 49 48 47 47 47 48 48 49 50 50 51 52 52 53 53
40 41 40 41 40 38 37 36 35 34 35 33 33 33 33 37 39 39 42 46 45 47 48 47 47 47 47 47 47 47 47 48 48 49 50 51 51 52
41 40 40 39 37 35 35 34 34 34 33 33 34 39 39 39 39 42 42 43 46 47 48 47 47 47 46 46 46 46 46 46 46 47 47 48 48 49
39 39 38 37 35 34 34 34 34 34 35 36 37 38 39 41 39 37 38 40 40 45 46 46 47 47 47 47 47 46 46 45 45 45 46 46 46 47
35 36 35 37 38 38 38 37 38 37 38 36 35 36 36 37 36 38 36 37 38 39 38 40 40 41 42 45 45 46 46 46 45 45 46 46 46 46
32 34 36 38 39 39 38 37 38 37 35 35 34 34 36 37 37 36 33 31 29 38 36 36 40 38 40 41 45 46 46 45 45 45 45 45 45 45
32 33 35 37 36 37 38 39 39 40 40 37 35 35 35 37 32 30 32 32 31 35 37 33 38 37 40 43 45 45 45 45 44 44 44 44 44 45
33 34 37 37 38 37 38 37 37 38 39 40 37 37 37 38 36 34 34 34 35 37 37 30 36 35 38 39 43 44 43 43 43 43 43 43 43 44
34 36 38 39 38 40 38 34 36 36 42 41 40 40 40 40 39 35 30 30 30 31 34 31 32 32 33 34 37 42 43 43 43 43 43 43 43 43
38 38 37 37 39 39 36 35 32 33 34 35 35 38 39 38 41 35 32 28 28 26 32 27 29 29 26 31 33 34 35 40 41 42 42 42 42 39
36 36 36 37 37 37 37 34 33 36 36 34 34 34 35 35 35 35 34 32 28 26 33 31 25 27 27 27 30 32 32 33 35 36 40 40 40 40
35 35 36 36 35 35 34 36 36 36 33 33 32 31 31 31 33 33 32 32 32 29 31 30 26 26 24 23 23 29 30 32 32 32 33 36 38 39
35 34 35 34 34 34 34 34 34 32 32 30 30 29 30 32 31 31 33 33 32 32 33 31 29 28 26 24 23 25 27 29 31 29 29 32 32 33
34 35 34 32 33 32 33 34 33 32 30 29 29 30 30 31 30 31 29 30 28 30 33 32 32 30 27 27 27 26 29 26 30 30 31 32 33 33
32 33 32 32 31 32 32 32 32 31 29 29 29 28 28 29 29 30 30 29 27 27 28 32 33 33 32 30 27 29 29 30 31 31 31 30 32 34
31 30 30 30 29 30 29 29 30 30 30 29 27 26 26 26 26 28 29 28 27 28 28 30 31 31 31 32 35 29 31 31 32 33 33 30 31 35
29 29 28 28 28 28 27 28 27 28 28 26 26 26 25 25 26 27 28 28 28 28 29 30 30 29 26 24 33 40 32 31 32 32 32 32 31 34
28 27 27 28 27 28 28 27 26 26 26 26 25 26 26 25 25 26 27 27 27 28 28 30 29 29 27 26 28 32 37 32 31 30 31 34 35 39
27 27 28 27 28 28 27 26 26 25 26 26 26 26 26 25 25 26 26 30 30 28 27 28 30 37 33 33 29 30 34 38 37 33 33 31 30 31
27 27 27 27 28 27 26 25 25 25 25 26 26 26 26 27 26 26 27 26 27 27 28 30 32 32 31 29 28 29 32 35 38 39 39 37 31 27
26 26 26 26 28 27 26 26 25 25 26 26 26 26 26 26 27 27 27 27 27 28 29 29 31 32 31 31 30 30 30 31 33 33 34 39 39 38

GFSNE_sfc_temp_072.txt.gz
Temp
56 52 46 45 45 44 44 45 45 37 35 36 36 38 38 39 40 41 41 44 47 48 50 51 51 51 51 51 51 51 51 51 52 53 54 55 56 57
46 45 44 43 42 42 42 42 42 40 36 36 35 36 38 40 40 41 41 44 46 49 50 50 51 50 50 50 49 50 50 51 52 53 53 54 55 55
43 42 40 41 40 40 40 40 39 38 36 33 35 35 35 36 39 40 42 43 43 47 49 49 49 49 48 48 48 49 49 50 50 51 52 53 53 54
41 40 39 41 39 39 38 38 36 35 36 33 33 33 34 36 37 38 41 44 41 46 48 49 49 49 48 48 48 48 48 48 49 49 50 50 51 52
40 40 39 38 36 35 35 34 34 35 34 34 33 35 36 37 34 36 36 38 43 46 47 47 47 47 48 48 48 48 48 48 48 48 48 48 49 49
38 38 37 37 35 35 35 34 35 34 34 34 34 34 36 37 35 34 32 34 33 41 42 43 45 46 47 47 47 46 46 47 47 47 47 47 47 48
35 36 36 38 39 37 35 36 36 35 34 33 33 34 32 33 32 33 31 31 32 34 32 33 34 36 37 42 43 44 45 46 47 47 47 47 47 47
33 33 34 34 36 39 38 39 39 35 34 29 29 30 31 32 32 28 27 25 23 31 29 33 33 32 35 34 43 45 46 46 46 46 46 46 46 46
32 32 33 34 34 34 37 40 39 39 39 35 30 30 29 31 28 24 27 23 25 31 29 30 31 31 35 39 43 44 45 45 45 45 45 45 45 46
32 33 33 34 35 36 36 33 34 34 36 37 32 31 32 32 31 28 27 28 28 30 30 24 29 30 33 32 41 42 42 43 44 45 45 44 45 45
32 33 35 35 39 40 34 32 32 32 40 42 40 40 40 40 39 27 22 21 24 27 29 26 26 26 31 31 32 40 42 42 42 42 43 43 44 43
32 33 38 36 39 38 32 28 27 28 28 30 30 32 35 33 41 32 24 16 27 25 26 23 23 23 23 25 28 31 30 37 39 39 40 41 42 39
30 30 31 37 37 36 36 27 29 31 31 27 27 28 29 29 29 30 30 27 27 27 33 30 26 27 26 26 26 26 30 30 31 32 36 38 39 39
29 28 29 36 36 35 33 36 36 35 27 27 27 25 25 25 30 31 31 31 31 29 31 30 26 26 24 24 24 27 28 30 29 28 30 34 37 38
30 33 35 35 35 32 35 35 35 27 27 23 23 22 22 22 25 30 31 31 31 32 32 32 29 28 27 25 25 27 28 29 30 28 24 28 29 31
32 28 33 34 35 33 32 31 29 27 25 21 21 22 24 29 29 30 28 28 28 29 32 32 31 30 28 28 28 27 29 26 30 31 32 31 31 31
30 26 26 27 26 27 27 27 27 27 23 22 25 27 27 27 27 28 26 26 26 26 28 31 33 32 32 30 27 29 30 30 31 31 32 30 32 33
26 25 23 22 23 25 25 25 25 29 28 27 26 25 24 24 24 26 26 25 25 26 27 29 30 29 29 31 34 29 30 30 31 31 31 30 30 35
24 21 21 21 22 22 21 25 26 27 27 26 25 25 25 24 25 24 25 25 25 27 28 29 29 27 24 23 30 39 30 31 31 31 32 30 30 32
21 20 20 21 21 21 27 25 25 26 25 25 24 23 23 22 20 20 21 23 24 26 27 28 28 28 25 25 26 31 37 31 30 29 30 33 34 38
21 20 21 20 19 27 27 26 25 24 25 25 23 24 25 23 22 22 23 28 29 26 25 26 28 36 32 31 27 29 33 37 36 33 32 31 30 31
21 20 20 19 18 25 26 25 24 24 24 24 24 24 24 24 23 24 24 23 25 26 26 28 30 30 29 29 27 28 30 34 37 38 38 37 30 27
19 20 19 18 14 24 26 25 24 24 25 24 23 23 23 23 24 24 24 25 26 26 27 27 28 30 30 30 30 28 29 30 31 31 33 39 39 39

GFSNE_sfc_temp_075.txt.gz
Temp
53 52 48 46 47 47 47 47 48 38 37 38 38 40 40 40 41 41 40 42 44 47 49 51 51 52 52 52 52 52 52 52 52 53 54 55 55 56
47 46 44 43 43 43 44 45 45 42 39 38 36 36 38 40 40 40 40 42 46 48 49 50 51 51 51 51 51 50 51 51 52 53 54 54 55 55
43 42 41 42 41 41 41 41 40 40 38 35 36 36 36 36 40 41 41 41 42 46 48 49 50 50 50 50 50 50 50 50 51 51 52 53 53 53
41 40 40 41 39 39 39 38 37 37 38 34 34 34 35 37 38 38 41 44 42 45 47 48 49 49 49 49 49 49 49 49 49 49 49 50 51 52
40 39 39 38 36 36 35 35 35 36 36 35 33 36 36 37 36 38 38 35 40 45 47 47 46 47 47 48 48 48 48 48 48 48 48 49 50 50
38 38 37 36 35 35 35 34 35 33 33 33 35 34 35 37 36 32 31 34 33 40 41 42 44 44 45 46 46 45 45 46 47 47 48 48 48 49
36 37 37 39 40 39 36 34 34 33 33 33 33 33 32 33 31 32 30 30 31 32 31 31 32 33 34 40 41 43 44 46 47 47 47 48 48 48
33 33 34 35 37 39 38 38 37 34 33 31 29 29 30 29 29 28 27 24 23 31 29 29 32 31 31 31 40 44 44 45 46 46 46 47 47 47
31 32 34 36 34 33 36 39 39 40 39 32 28 28 28 29 26 22 27 23 24 29 28 27 29 28 30 36 40 42 43 43 44 44 45 46 46 46
31 30 29 29 31 34 34 32 33 33 34 36 31 30 30 31 30 28 27 27 27 28 28 20 26 27 29 31 39 41 42 43 43 42 43 43 44 44
30 30 31 31 39 40 31 28 28 30 38 41 40 40 41 41 39 27 22 20 20 25 27 25 24 26 28 27 30 38 39 39 40 40 41 41 42 43
29 30 38 34 38 38 29 26 25 26 27 29 29 31 32 31 39 30 24 14 16 17 26 24 22 25 23 25 26 31 28 35 37 38 38 39 39 37
29 29 30 37 37 37 36 27 28 30 30 26 26 26 27 27 28 28 28 18 23 27 33 29 25 27 26 25 24 27 29 29 29 32 35 36 37 38
28 28 28 36 36 36 33 36 36 34 26 26 26 24 24 23 27 28 32 31 31 29 31 30 26 26 25 25 25 27 28 30 29 28 28 33 36 38
30 33 36 36 35 31 35 36 35 26 26 22 22 20 20 20 21 30 32 31 30 30 31 31 29 29 27 25 25 26 28 29 30 27 27 27 30 30
31 27 32 34 35 33 31 30 28 26 24 21 20 21 26 28 28 28 27 27 21 24 26 27 30 29 27 27 27 27 29 27 30 32 32 31 31 31
30 26 26 26 25 26 26 26 26 26 22 21 26 26 26 27 26 27 26 25 23 24 23 24 31 32 31 28 26 28 29 30 31 30 30 30 32 34
26 24 22 21 22 24 24 24 24 28 28 27 26 25 24 24 24 25 23 24 22 23 24 26 28 28 28 28 33 28 29 29 30 30 30 28 29 34
23 20 19 20 20 21 20 20 25 26 26 25 25 24 24 23 23 18 18 20 23 24 24 24 26 26 23 22 29 37 28 30 30 30 30 31 30 32
20 19 18 20 20 18 22 26 25 25 25 25 24 24 21 22 20 19 18 19 20 24 24 24 27 24 23 23 24 29 36 29 29 29 30 32 34 39
19 19 20 19 18 18 22 26 25 24 25 24 24 23 17 20 21 20 21 27 27 24 22 24 27 34 30 28 25 27 31 36 35 31 31 30 29 30
21 20 20 19 17 14 16 26 24 25 24 23 19 20 21 22 21 22 22 22 22 23 24 27 30 28 26 26 25 27 29 32 36 37 38 36 30 26
20 20 18 16 13 11 11 24 25 24 24 24 20 20 21 21 22 23 23 23 23 24 25 26 28 29 27 27 29 28 29 29 30 30 32 38 39 39

GFSNE_sfc_temp_078.txt.gz
Temp
50 49 48 47 47 48 48 48 48 41 39 38 38 40 41 42 44 43 41 45 47 47 49 49 50 51 52 53 53 53 53 53 53 53 54 55 56 57
46 46 44 44 44 44 45 45 45 44 41 39 38 37 39 41 42 40 41 43 45 47 49 49 49 50 51 51 51 51 51 52 52 53 54 55 55 55
43 42 42 42 41 41 41 41 41 41 37 35 36 37 36 38 40 40 41 41 42 45 47 49 50 50 50 50 50 50 50 51 51 52 53 53 53 53
42 41 40 42 39 39 39 37 37 37 38 34 35 35 36 37 38 38 41 44 42 45 47 48 49 49 49 49 49 49 49 50 50 50 51 51 52 52
39 39 39 39 37 36 36 35 35 37 36 36 32 36 36 37 36 38 38 35 39 43 46 46 46 46 47 47 48 48 48 47 47 48 48 49 50 50
36 37 37 37 36 35 35 35 36 35 35 34 33 33 34 35 35 32 30 32 32 38 40 42 43 44 44 45 45 45 45 45 46 47 47 48 48 49
36 37 37 40 41 39 34 34 34 34 33 33 33 33 28 32 29 28 28 27 28 29 30 31 31 31 32 38 40 42 43 45 46 47 47 48 48 48
33 34 35 34 38 41 41 40 38 33 28 29 27 27 28 28 28 27 26 22 22 29 28 29 29 29 30 30 39 42 44 44 45 45 46 47 47 47
30 26 31 36 35 33 37 39 38 41 38 30 27 26 26 27 24 20 25 20 22 28 27 25 28 28 30 34 39 40 42 43 44 44 44 44 45 45
25 26 28 28 31 32 31 30 30 30 32 34 29 28 28 28 28 26 25 26 26 28 27 18 25 26 29 31 37 40 41 42 41 41 41 42 43 43
29 29 30 29 39 39 30 28 28 29 37 40 39 40 40 41 37 27 22 20 20 25 27 25 24 24 26 26 29 38 40 39 39 40 40 41 41 41
29 30 39 33 38 38 29 26 25 26 26 28 29 30 31 31 37 29 24 14 15 16 25 27 26 24 20 24 26 28 29 36 38 39 39 39 40 37
29 29 30 37 37 37 36 27 28 29 30 26 25 25 27 27 28 28 27 16 22 26 33 29 22 26 26 22 24 26 27 29 29 31 35 37 38 38
28 28 28 36 37 36 33 35 36 32 26 26 25 23 23 23 23 25 28 31 31 29 31 30 25 23 23 24 24 24 24 29 28 28 28 32 37 38
30 32 36 36 35 31 35 36 34 26 26 22 21 20 20 19 23 29 30 31 30 28 28 19 27 26 27 26 25 27 28 30 31 28 20 25 26 29
32 27 32 34 35 32 31 29 28 26 23 20 19 21 27 28 27 28 26 27 26 23 23 22 20 25 26 26 26 26 29 26 27 30 30 30 30 32
29 26 25 25 25 25 26 26 25 26 22 24 26 26 26 26 26 27 26 24 23 23 24 25 25 27 28 27 25 28 28 28 29 29 28 29 30 32
26 23 21 21 21 24 24 24 24 28 28 27 26 25 25 24 23 18 15 16 20 20 21 23 18 22 24 27 32 27 27 26 28 28 28 28 29 34
23 19 19 19 19 20 19 17 24 27 26 25 24 24 24 24 23 17 15 15 19 19 20 21 15 21 22 20 26 36 26 27 28 28 29 29 29 31
20 18 18 19 19 18 17 17 26 26 25 25 24 24 24 19 17 15 15 15 17 18 19 19 14 21 22 22 23 28 35 27 27 27 28 30 32 37
19 18 19 18 18 16 17 16 25 24 25 24 24 24 17 14 19 16 18 25 26 22 20 21 22 32 30 28 24 26 29 35 34 29 30 29 29 30
20 19 19 18 17 13 10 12 23 25 24 24 24 21 17 18 19 20 20 20 21 21 21 24 27 28 27 25 24 25 26 31 35 36 37 36 30 26
20 19 18 17 14 10 6 8 14 20 24 23 23 23 18 19 20 21 21 22 21 21 22 23 25 26 27 26 26 26 27 29 31 30 31 38 38 38

GFSNE_sfc_temp_081.txt.gz
Temp
49 49 48 46 47 48 48 49 48 43 41 40 39 41 42 43 46 44 43 47 49 50 50 51 51 51 51 51 52 53 53 53 54 54 55 55 56 57
46 46 43 44 44 44 45 45 45 44 41 39 38 38 40 42 43 41 42 44 46 48 49 49 50 50 50 51 52 52 52 52 53 54 54 55 56 56
44 43 42 43 40 42 42 41 41 41 38 35 36 37 37 38 40 41 41 40 41 44 47 47 48 50 50 50 51 51 51 51 52 52 53 53 54 53
42 42 41 42 39 39 38 38 37 38 39 35 35 35 36 37 38 38 40 43 42 44 47 48 49 49 49 49 49 49 49 50 50 50 50 51 52 52
40 39 39 39 36 36 35 32 31 37 36 36 33 35 36 37 36 37 38 37 40 43 45 46 46 46 47 47 47 47 47 47 47 47 48 48 49 50
35 35 34 34 33 32 32 32 33 33 32 31 33 33 35 36 35 32 31 30 31 37 39 41 42 43 43 44 45 45 44 45 46 47 47 48 48 49
36 37 37 40 42 38 34 32 32 31 33 33 33 33 32 30 29 28 28 27 27 27 28 30 30 30 31 37 38 41 42 44 45 46 47 47 48 49
33 34 35 35 38 42 41 41 38 30 27 26 29 26 26 26 26 26 24 20 20 28 27 27 29 28 30 30 39 42 43 44 44 45 45 46 47 47
27 25 30 34 33 31 37 38 39 41 37 29 26 25 25 26 23 19 24 18 21 27 26 24 27 27 29 33 38 40 41 43 43 43 43 44 44 44
24 25 27 28 31 31 30 29 29 30 32 33 29 28 28 28 27 24 24 25 26 27 27 18 25 26 28 29 36 39 42 41 41 41 41 42 42 43
29 28 29 29 39 38 30 28 27 29 36 39 38 39 39 40 37 31 24 20 21 25 26 24 24 24 25 25 29 37 40 41 40 41 41 41 42 42
28 30 38 33 38 38 28 26 25 26 26 28 28 29 30 31 36 29 23 12 14 16 25 22 22 23 19 24 26 28 29 36 38 39 39 39 40 38
29 29 30 37 38 37 35 27 28 29 29 25 25 25 26 26 27 27 26 15 22 25 32 30 25 27 26 20 23 25 26 28 28 31 35 37 38 38
28 29 29 36 37 37 33 35 37 31 26 25 25 22 22 22 23 23 26 28 31 29 31 29 26 25 22 24 25 24 23 27 27 27 28 33 36 38
31 32 36 37 36 31 35 36 34 26 25 21 20 19 19 18 23 29 30 30 29 30 31 26 22 26 26 24 24 26 27 26 30 26 19 24 26 28
32 26 31 33 34 32 30 29 27 26 23 19 19 20 25 27 27 27 25 26 24 21 23 19 16 16 23 25 26 25 28 25 26 29 27 28 29 29
28 25 25 25 24 25 25 25 24 25 21 23 26 26 27 27 26 26 25 24 19 16 20 21 23 23 23 23 23 26 27 27 28 27 26 27 29 30
26 23 21 20 20 23 23 23 23 25 25 27 26 25 24 24 24 17 13 13 17 16 16 17 13 15 17 24 30 25 27 26 26 26 25 25 27 31
23 19 18 19 19 19 18 17 16 23 26 25 24 24 24 24 23 15 14 12 16 16 17 16 7 15 18 18 26 35 25 18 25 26 27 26 27 30
19 18 18 19 19 18 17 14 15 22 25 25 24 24 24 23 14 13 13 13 16 16 16 14 10 15 19 19 22 27 34 26 23 24 25 28 31 36
19 18 19 19 18 17 17 14 13 14 18 24 24 24 24 16 14 14 16 24 25 21 18 18 21 29 26 27 24 26 28 34 33 28 28 28 28 30
20 19 20 19 17 15 13 11 9 13 15 20 24 24 24 20 16 18 19 18 19 19 19 21 22 21 21 24 23 25 27 29 33 35 36 35 29 25
20 20 19 17 16 14 11 11 10 12 12 14 20 23 23 21 18 19 20 20 20 20 20 21 22 22 23 24 26 25 25 25 28 29 31 37 38 37

GFSNE_sfc_temp_084.txt.gz
Temp
49 49 48 47 46 47 49 49 48 44 43 40 40 41 42 44 46 45 45 51 51 51 52 52 52 52 52 51 51 52 52 52 53 54 55 56 57 57
47 46 44 43 43 44 44 46 46 45 42 39 38 39 41 42 44 43 43 45 46 49 50 50 50 50 50 50 51 52 52 53 53 54 55 55 56 56
45 44 43 44 42 41 40 39 39 39 39 35 37 37 38 39 40 41 41 41 41 45 47 48 48 49 50 51 51 51 51 51 52 53 53 54 54 55
43 42 41 43 40 39 39 38 35 38 39 35 35 35 36 38 38 38 41 43 41 44 47 48 49 49 49 49 49 49 49 50 50 50 50 51 52 52
41 40 40 39 37 37 36 35 34 35 33 32 32 35 35 36 35 37 38 38 40 43 45 45 46 46 46 47 47 47 47 48 48 48 48 48 49 50
36 35 34 34 32 31 31 31 32 31 31 30 30 33 34 36 35 34 33 32 31 36 37 40 43 42 43 44 45 45 44 45 46 47 47 48 48 49
37 38 38 40 41 38 33 31 31 30 30 30 29 30 31 31 31 27 27 27 27 27 28 29 30 30 31 36 38 40 42 44 45 46 47 47 48 48
34 34 35 36 40 43 42 42 36 30 25 23 20 24 25 25 26 25 23 20 20 27 26 27 28 28 30 30 39 42 42 43 44 45 46 46 46 46
27 27 31 34 32 30 37 38 39 41 37 29 26 25 25 26 23 19 23 18 21 26 26 24 27 27 29 33 38 40 41 42 43 43 43 43 44 44
25 25 27 28 31 30 29 29 29 30 32 32 28 27 27 27 27 24 24 25 26 27 26 18 25 26 28 28 36 39 42 42 42 42 42 42 43 43
29 28 29 29 39 37 29 28 27 28 36 39 38 39 38 39 35 31 29 20 20 25 26 24 23 23 25 26 29 37 41 41 40 41 41 41 42 42
29 29 38 33 39 38 28 26 24 25 25 27 27 29 30 32 35 28 22 12 14 16 24 23 21 22 18 24 26 28 29 36 38 39 39 39 40 38
29 29 30 37 38 37 34 26 28 28 29 25 25 25 26 26 26 27 26 14 17 24 28 29 18 22 24 20 23 25 27 28 29 31 35 37 38 38
28 28 29 36 37 37 32 36 37 32 26 25 24 22 22 21 22 23 26 25 30 28 30 29 25 24 23 24 22 23 22 25 27 27 28 32 35 37
30 32 36 37 36 31 35 36 33 26 25 20 20 18 19 18 22 28 30 30 29 28 29 29 27 26 23 23 24 26 27 25 30 22 18 21 26 28
32 26 31 33 33 31 30 28 27 25 22 19 18 19 22 27 26 27 25 26 23 15 23 17 12 13 14 21 23 23 26 24 25 29 28 25 27 28
27 25 24 24 24 24 24 24 24 24 20 19 21 26 27 27 27 26 25 22 17 12 16 17 22 21 19 20 21 23 23 24 28 27 25 25 27 28
26 23 20 19 20 23 23 23 22 24 22 21 22 25 25 24 24 24 21 11 12 11 12 12 10 14 17 22 27 22 22 26 26 25 24 24 26 29
24 19 18 19 19 19 18 16 15 19 17 18 24 24 24 24 25 22 10 10 12 11 13 10 5 11 12 15 23 35 23 15 18 25 26 25 25 27
19 18 18 19 18 17 17 14 13 14 15 17 17 24 24 23 23 16 10 8 14 12 13 10 7 13 15 15 17 24 33 25 22 23 24 27 29 34
19 18 19 18 18 17 17 14 12 9 11 11 14 23 23 23 22 18 14 23 24 20 17 17 19 28 20 22 20 23 27 34 32 26 26 26 26 28
22 21 20 19 18 15 14 12 9 8 9 11 14 13 15 23 22 21 18 16 17 17 17 19 20 13 14 21 20 22 24 28 33 34 35 33 27 24
23 22 21 19 18 17 15 14 12 11 9 10 10 14 14 16 23 22 20 18 18 18 19 19 20 17 19 21 24 24 25 26 26 26 28 35 37 37

GFSNE_sfc_temp_087.txt.gz
Temp
54 53 52 50 50 51 53 55 53 48 50 44 49 46 46 46 47 48 50 52 52 52 53 53 52 52 53 52 52 53 53 53 54 54 54 55 56 57
50 51 49 48 49 49 49 49 50 50 45 43 43 43 44 44 45 44 45 46 48 50 50 50 51 50 50 51 51 52 53 53 54 54 55 56 56 56
50 48 45 46 45 45 45 47 46 46 44 38 39 41 41 42 42 44 44 45 45 46 48 49 49 49 50 50 51 51 51 51 52 53 54 54 54 54
47 46 44 45 43 44 44 42 42 43 45 39 38 38 39 40 40 41 43 45 46 45 47 48 49 49 49 49 49 49 49 49 50 51 51 51 51 52
45 44 43 43 40 40 40 39 39 41 42 42 37 40 40 41 40 41 42 41 44 43 44 44 45 46 46 46 47 48 47 48 48 48 48 48 49 50
40 40 40 40 39 38 38 39 40 41 40 40 39 38 39 40 39 39 40 41 41 42 41 41 43 43 43 44 45 45 45 45 46 47 47 48 48 49
40 40 40 40 41 40 39 38 39 39 40 38 36 38 37 39 39 38 39 39 40 39 40 42 42 43 43 41 41 41 43 45 45 46 47 47 48 48
36 37 38 38 43 44 43 42 41 39 35 36 34 36 36 37 37 37 36 36 36 38 38 40 39 41 42 43 40 42 43 43 44 45 45 46 45 45
33 33 35 37 37 38 40 40 41 41 39 38 36 36 35 37 35 32 34 33 35 38 36 37 39 39 42 41 39 40 41 42 43 43 43 43 44 44
33 34 35 36 37 36 37 35 36 38 38 38 38 37 38 37 37 35 35 35 36 37 36 32 37 37 40 40 36 40 41 43 42 42 42 43 43 43
34 35 36 37 39 37 35 33 34 35 38 39 39 39 38 39 37 36 34 33 33 34 36 33 35 34 36 37 40 39 40 41 40 41 41 41 41 42
34 36 38 38 39 37 35 34 32 33 34 34 35 35 35 37 35 36 34 30 30 31 34 31 32 32 31 36 37 39 39 38 38 39 39 39 40 40
34 34 36 38 39 38 35 34 34 35 34 33 33 34 34 34 34 34 33 30 29 29 35 32 30 31 31 30 34 36 37 37 39 38 37 37 37 39
33 34 35 37 38 37 36 36 38 34 33 32 32 31 31 31 31 32 32 32 32 31 33 32 29 29 28 27 28 34 35 36 36 35 36 36 37 38
35 35 36 37 37 35 37 38 35 33 32 30 29 29 30 30 29 31 32 32 32 32 32 31 31 30 28 26 26 28 29 33 34 33 33 33 34 36
36 34 34 34 33 33 34 33 32 32 31 30 29 30 30 30 30 31 29 29 28 29 30 29 27 25 26 28 27 25 29 27 33 33 33 33 34 35
31 31 31 30 30 30 30 30 30 31 29 29 29 30 30 30 29 31 29 27 24 24 25 28 29 29 27 25 25 28 29 29 31 31 31 30 32 35
31 29 28 28 28 29 29 29 29 30 30 29 29 29 28 28 28 28 27 24 22 23 24 25 25 25 28 30 29 27 29 29 31 31 31 28 29 35
31 28 27 27 27 27 28 27 27 29 27 27 28 28 28 27 27 27 26 23 23 23 24 24 23 21 21 22 31 34 28 30 30 30 31 31 30 32
28 27 27 27 27 26 27 26 26 26 25 26 27 27 26 26 26 26 25 22 22 23 23 25 23 22 21 22 23 28 33 29 29 29 30 32 34 35
27 26 27 27 26 26 26 25 24 24 23 24 25 25 26 26 25 25 25 25 25 25 23 23 26 29 26 25 22 25 30 33 33 30 30 28 28 30
28 27 27 27 26 25 24 23 22 22 23 23 23 24 25 25 25 24 24 23 22 22 22 24 25 25 22 22 22 23 26 30 33 34 35 33 29 25
29 28 28 27 26 25 24 23 21 22 21 20 21 21 21 22 25 25 25 24 22 21 21 22 25 26 23 23 23 24 25 27 30 31 32 36 35 35

GFSNE_sfc_temp_090.txt.gz
Temp
57 56 54 54 55 55 54 55 55 55 55 52 54 51 48 49 48 51 50 51 53 53 53 53 53 53 52 52 53 53 54 54 54 55 55 56 56 57
53 53 53 53 53 53 53 54 54 53 49 49 46 47 47 47 47 46 46 47 49 50 51 51 51 51 51 51 52 52 53 53 53 54 55 55 56 56
55 55 53 51 49 49 49 52 53 53 49 41 42 44 46 48 49 50 48 48 49 48 49 49 49 50 50 50 51 51 51 51 52 52 53 54 54 54
53 52 49 49 48 50 52 50 50 50 48 42 41 43 44 44 46 45 46 49 50 46 47 48 49 49 49 49 49 49 49 49 50 50 51 51 51 52
52 51 50 49 46 45 47 45 46 46 48 46 41 44 45 47 47 48 48 49 49 45 45 45 46 46 47 47 47 48 48 47 48 48 48 48 49 50
48 47 47 46 45 45 44 45 47 47 47 46 44 43 46 46 47 46 46 48 47 48 45 43 43 44 44 45 45 45 45 45 46 47 47 47 48 49
43 44 44 43 43 44 45 45 45 46 47 44 43 44 43 44 45 45 44 46 47 45 46 48 47 47 48 45 43 42 43 44 45 46 47 47 47 48
41 42 43 44 44 44 43 43 45 45 42 43 41 43 43 44 44 43 42 41 41 44 42 44 46 46 47 47 42 42 43 44 44 45 45 46 46 46
36 37 40 41 43 44 43 43 42 42 43 45 43 44 42 43 40 36 39 38 40 43 40 41 45 44 47 46 42 41 42 43 43 43 43 44 44 45
40 41 41 41 41 41 42 40 41 42 42 43 44 42 42 42 41 38 40 40 41 42 41 36 44 42 45 45 38 40 41 43 43 42 42 43 43 43
40 42 42 42 39 39 39 37 40 39 40 40 40 39 39 39 40 41 37 37 37 39 41 37 40 38 41 42 44 39 40 41 41 41 42 42 42 42
40 40 40 42 40 38 40 40 37 39 38 38 39 38 39 38 37 40 39 32 34 34 38 33 34 35 33 41 41 42 43 42 41 40 41 40 40 41
38 39 41 40 39 38 38 40 39 40 36 38 39 39 39 39 39 39 38 33 31 32 37 34 31 31 31 33 37 40 41 41 42 42 41 40 39 39
38 39 40 38 38 38 38 38 38 37 39 38 37 36 36 35 35 36 35 35 35 32 35 32 30 30 29 28 30 38 39 39 39 39 39 40 40 40
39 39 37 38 38 38 37 38 38 38 37 35 34 34 34 34 32 32 33 33 32 33 33 32 31 31 29 27 28 30 31 35 37 35 35 35 36 38
36 38 37 38 38 38 37 38 37 38 36 35 35 35 34 32 32 33 31 31 29 30 33 32 31 30 28 30 30 28 31 29 35 35 35 34 35 36
37 36 36 36 35 35 36 36 36 36 34 35 33 33 33 33 32 32 31 29 27 28 30 33 33 32 31 29 27 31 32 33 34 34 32 31 35 37
35 34 35 35 35 35 34 34 35 34 34 34 33 33 31 31 30 31 30 28 26 28 29 31 30 29 31 33 32 29 32 32 33 33 33 30 31 37
34 34 34 34 33 34 34 33 32 34 33 32 32 31 31 30 30 29 29 28 26 28 28 29 27 26 24 24 34 35 29 31 33 32 33 33 32 35
36 34 33 33 33 32 33 32 32 32 31 31 31 31 30 29 29 28 28 26 26 27 26 28 27 26 24 24 25 30 34 30 30 30 31 34 36 37
35 33 34 33 33 32 32 32 31 31 31 29 29 30 29 29 29 29 29 29 28 26 25 27 30 33 29 28 23 27 33 34 32 30 30 29 29 31
35 34 34 33 33 32 31 31 30 29 29 29 28 29 29 29 28 28 28 27 27 27 26 28 29 28 25 23 23 26 29 33 35 35 35 33 28 25
35 35 34 33 33 32 31 30 29 29 28 28 28 28 28 27 29 29 29 28 27 26 26 25 27 29 26 25 24 24 25 28 31 31 34 37 37 37

GFSNE_sfc_temp_093.txt.gz
Temp
59 59 57 55 56 56 55 56 55 50 51 51 50 49 48 48 48 50 49 52 53 54 53 53 54 54 54 53 53 54 54 54 55 55 56 56 57 57
53 52 51 52 53 53 53 53 53 52 51 49 45 47 48 48 47 47 47 48 50 51 52 51 51 52 52 52 52 52 53 53 53 54 55 56 56 57
53 53 52 54 51 51 50 52 52 51 47 41 44 45 46 47 49 49 49 48 49 49 50 50 50 50 51 51 51 51 51 51 51 52 53 54 54 54
53 52 49 50 49 50 51 51 51 51 48 43 43 43 44 46 47 47 47 50 49 47 49 49 49 49 49 49 49 49 49 49 50 50 50 51 51 52
53 51 49 49 48 47 47 46 46 46 47 44 41 44 45 46 45 46 46 46 48 46 47 46 47 47 47 47 47 47 48 48 47 48 48 49 49 50
50 50 49 49 46 46 45 45 46 46 46 44 43 42 43 44 43 42 41 43 43 48 46 43 45 45 45 46 46 45 45 45 46 47 47 47 48 49
45 45 45 45 46 47 46 45 45 45 45 43 41 41 40 40 40 40 38 40 40 40 39 41 40 41 42 45 44 44 44 44 45 46 46 47 48 48
43 43 43 44 44 45 44 44 45 43 40 39 38 38 39 39 39 37 36 34 33 39 36 37 39 38 41 40 43 43 43 44 44 45 45 46 46 46
36 38 41 43 44 42 44 43 43 43 44 41 39 39 37 39 34 33 34 33 33 37 35 34 38 37 40 44 43 42 42 43 43 44 43 44 44 45
40 41 40 41 41 41 40 38 38 39 40 43 40 39 38 38 37 35 35 35 36 37 36 30 37 35 38 38 41 40 42 42 44 43 43 43 43 43
40 42 41 40 40 42 38 36 37 36 41 41 40 41 41 41 40 36 33 32 31 33 35 31 33 31 34 35 36 40 41 42 43 42 42 43 43 43
39 39 42 42 40 40 37 37 34 35 35 35 34 36 39 36 39 36 33 28 30 29 32 29 31 28 26 33 34 35 35 43 43 43 42 43 42 36
37 37 38 41 40 39 39 37 37 37 36 35 35 35 35 35 34 34 33 32 31 29 32 29 30 30 30 28 29 33 33 34 34 36 42 42 42 39
36 37 38 40 39 39 37 39 39 39 35 34 33 32 32 31 31 31 32 31 34 31 32 31 28 29 28 27 27 29 29 31 31 31 32 37 40 41
38 39 40 39 39 38 39 39 39 34 34 31 30 30 30 31 29 29 32 31 29 30 31 26 26 29 28 27 26 28 29 28 31 29 32 33 32 32
38 36 37 37 38 37 36 36 35 35 33 31 31 31 31 31 30 32 30 30 28 29 33 27 24 23 26 28 28 27 30 26 27 31 32 33 34 34
36 34 33 33 32 33 33 34 34 33 30 31 30 30 30 29 30 31 30 29 26 26 28 31 31 31 30 28 25 26 26 27 28 32 32 30 32 34
34 32 32 32 32 33 32 32 32 33 31 31 30 29 28 27 30 30 29 27 25 26 27 29 29 27 28 29 31 25 26 26 30 32 32 29 29 31
33 32 31 31 31 31 30 30 30 30 29 29 29 28 27 27 30 29 28 28 26 26 27 28 26 24 21 20 27 36 26 23 25 27 28 28 28 31
33 32 31 31 31 30 30 30 29 29 29 28 28 27 26 26 25 25 27 26 26 26 26 27 26 25 22 22 24 24 34 26 25 25 26 29 31 37
33 33 33 32 31 30 30 30 29 29 29 28 27 26 27 26 25 25 25 30 28 23 22 24 25 34 28 26 22 22 27 33 32 26 24 26 26 27
34 33 33 32 31 30 30 29 28 28 27 27 26 26 27 27 25 25 25 24 23 23 22 21 22 23 25 22 21 22 24 28 33 34 35 34 27 22
34 33 33 32 31 31 30 30 28 28 27 27 27 27 26 25 26 27 26 25 23 21 21 21 21 22 23 24 24 23 24 24 26 27 29 36 37 37

GFSNE_sfc_temp_096.txt.gz
Temp
61 60 57 55 55 55 55 55 54 50 49 48 43 47 46 46 48 48 48 53 54 54 55 55 54 55 55 55 55 55 55 55 55 55 56 57 57 58
54 53 51 52 52 52 52 52 52 52 48 45 43 45 46 46 47 46 47 48 51 52 52 52 52 52 53 53 53 53 53 54 54 54 55 55 56 56
52 52 51 51 49 48 48 48 49 50 46 40 42 43 44 45 46 46 47 46 46 50 51 51 51 51 51 52 52 51 51 51 51 52 53 54 54 54
51 50 48 49 46 48 48 48 48 47 46 41 41 41 42 44 45 42 46 49 46 49 49 49 49 49 49 49 49 49 49 49 49 50 50 51 51 52
50 49 48 48 46 45 43 41 42 43 44 40 37 42 43 43 43 41 41 40 44 47 48 48 48 48 47 47 47 47 47 47 47 47 48 48 49 49
48 48 47 47 44 41 41 40 41 40 40 40 40 40 40 39 38 37 36 37 37 44 45 45 46 46 46 46 46 45 45 45 46 46 47 47 48 48
43 43 42 43 46 44 41 39 40 39 38 37 38 37 35 35 34 35 32 33 32 33 32 34 35 35 36 45 44 44 44 44 45 46 46 47 47 48
37 38 41 43 45 46 46 46 44 39 36 38 32 33 34 32 33 31 29 24 26 32 30 30 33 32 35 35 45 43 43 44 44 45 45 46 46 46
36 37 39 41 40 38 44 44 44 45 43 37 35 33 32 33 30 27 29 25 25 30 30 28 32 32 34 41 44 43 43 43 44 44 44 44 44 45
38 38 36 36 37 37 35 33 32 35 37 39 33 32 32 33 32 30 30 29 30 31 31 23 29 30 31 32 43 42 42 43 43 43 43 43 43 43
37 37 36 35 42 43 34 32 32 33 41 42 42 42 42 42 38 31 26 24 25 28 29 27 27 27 29 30 32 42 42 42 44 43 43 43 43 43
34 36 42 37 42 42 33 32 29 30 31 30 31 35 35 36 40 31 27 19 21 22 27 22 24 24 20 28 30 31 32 41 43 43 43 43 43 34
33 32 34 41 41 40 40 32 33 33 35 30 29 29 29 30 29 29 29 21 17 18 30 22 19 25 27 23 25 29 29 30 30 32 39 40 42 40
32 32 34 41 40 40 37 41 42 38 30 30 29 27 27 25 25 27 29 27 25 23 29 30 22 19 26 25 23 25 24 28 27 28 28 35 38 40
34 36 40 40 40 38 39 40 40 31 30 27 26 24 23 23 23 24 26 28 22 26 28 31 25 16 25 25 25 27 28 25 29 24 30 29 33 34
38 34 36 36 37 35 35 35 31 31 28 26 25 25 25 21 22 22 24 28 27 27 30 31 21 18 14 21 27 26 28 24 20 24 27 32 33 33
33 31 30 30 29 30 30 30 30 31 27 25 24 24 26 25 23 23 28 27 25 25 26 29 31 29 28 27 24 26 26 20 23 25 30 30 32 33
32 29 28 28 29 30 30 30 29 31 27 26 24 25 24 23 21 24 28 26 25 25 25 27 27 27 27 28 32 24 22 19 21 25 26 23 27 28
31 29 28 28 29 29 29 28 26 27 22 24 26 23 20 19 25 22 27 27 26 25 25 26 25 24 21 20 24 36 24 16 20 23 23 23 25 28
31 29 28 29 29 28 28 26 25 24 24 25 22 22 22 20 15 15 18 18 18 21 25 25 24 24 22 21 22 21 33 19 18 23 24 25 28 34
31 30 30 30 29 28 27 27 26 24 22 19 23 23 22 20 18 19 20 28 25 18 18 17 21 31 26 24 22 23 22 32 31 27 22 24 25 27
32 32 31 31 30 29 28 28 25 28 24 25 25 25 24 24 22 21 21 20 22 18 16 14 16 15 14 17 20 18 22 26 30 33 34 32 25 23
33 32 32 31 31 30 28 27 27 27 26 26 26 25 25 24 25 24 23 23 22 19 18 16 18 17 18 19 23 23 22 22 25 26 27 34 35 36

GFSNE_sfc_temp_099.txt.gz
Temp
60 60 59 58 57 57 57 57 55 49 49 45 43 46 46 47 48 48 48 53 54 55 55 55 55 56 56 56 56 56 56 55 56 56 57 57 57 58
55 57 54 53 53 53 52 53 53 53 49 46 43 44 46 45 48 46 47 49 52 53 53 52 53 53 53 54 54 54 54 54 55 55 55 56 56 56
53 53 52 52 50 49 50 50 50 51 48 40 42 44 44 44 45 46 47 46 47 51 52 52 51 52 52 52 52 52 52 52 52 52 53 54 54 54
51 50 49 49 48 48 49 48 46 48 46 41 41 41 42 44 45 43 46 48 45 49 51 50 50 50 50 50 50 50 50 50 50 50 50 51 51 51
51 49 48 48 46 46 46 45 45 45 45 42 39 42 42 43 43 43 43 41 44 48 48 48 48 48 48 48 48 48 47 47 47 47 48 48 49 49
48 48 47 47 46 45 43 43 41 40 41 41 39 39 41 42 41 37 35 37 36 43 44 44 46 46 47 47 46 45 45 46 46 47 47 47 47 48
43 44 44 45 46 45 42 39 39 38 37 39 38 38 37 35 34 35 33 32 32 32 32 33 33 33 35 45 44 44 44 45 46 46 46 46 47 47
38 39 42 44 46 48 47 46 42 37 35 33 34 30 32 32 32 32 30 25 26 31 30 30 32 31 33 33 45 44 44 44 44 45 45 46 46 46
36 37 38 41 41 41 45 45 46 46 43 37 35 33 31 32 31 28 29 26 26 30 30 28 30 30 31 38 45 43 43 43 44 44 45 44 44 44
38 39 38 36 36 36 34 32 33 35 36 38 34 33 33 32 33 31 30 29 29 30 30 23 27 29 30 31 43 43 42 43 43 44 43 43 43 43
38 38 38 35 42 42 33 32 31 32 42 42 42 42 42 41 36 31 26 26 25 27 28 26 25 25 27 28 31 42 42 43 44 44 43 44 44 43
36 37 41 38 44 43 32 31 29 29 31 32 32 35 35 38 39 31 28 21 22 22 27 23 23 23 19 27 29 29 30 40 41 42 43 43 43 34
34 33 33 42 43 43 39 31 32 32 35 30 29 29 29 29 29 29 29 23 16 17 29 22 14 20 18 21 24 27 28 29 29 30 36 38 40 40
32 32 33 41 41 41 38 39 41 38 30 29 28 27 27 25 26 28 29 27 26 23 26 25 14 14 12 16 20 24 23 25 26 28 27 34 38 39
32 35 38 41 41 39 40 41 41 31 30 27 27 26 26 26 24 25 26 24 20 25 27 22 27 23 13 15 17 22 26 24 26 20 21 22 26 33
38 36 38 37 38 35 36 36 32 31 29 28 27 26 25 21 22 21 17 19 24 27 28 31 29 21 14 15 18 21 25 22 18 20 22 22 27 32
32 32 31 30 30 30 30 31 30 30 29 28 26 26 27 25 25 18 19 22 24 24 26 25 30 28 27 26 24 25 26 26 20 22 20 24 23 28
32 30 30 29 29 30 30 29 30 32 29 29 27 27 26 24 22 20 21 22 23 20 23 25 27 26 26 25 31 26 26 23 20 22 22 19 26 26
32 29 29 29 29 29 28 28 28 29 28 27 25 25 24 21 27 21 18 18 18 18 21 24 24 22 17 17 24 34 25 23 26 24 22 22 23 26
32 30 29 28 28 28 28 28 28 27 27 26 25 25 24 21 18 18 18 17 16 15 15 16 20 17 17 15 14 19 32 16 16 15 20 25 27 33
33 31 31 30 30 29 28 28 27 27 27 26 26 25 24 23 20 23 21 28 24 15 17 17 21 31 18 21 21 22 22 32 29 17 19 23 23 23
33 32 31 31 30 29 28 28 26 28 28 26 26 25 25 24 25 23 22 23 24 22 21 14 15 13 12 19 20 20 20 24 29 33 33 31 24 21
33 32 32 31 31 30 30 28 28 27 28 28 26 25 25 24 26 26 25 25 24 22 20 16 16 16 19 18 23 20 21 21 24 24 25 33 34 35

GFSNE_sfc_temp_102.txt.gz
Temp
60 59 59 58 58 58 58 57 57 50 49 44 43 46 47 48 49 49 49 54 55 55 56 56 55 56 57 57 57 57 57 56 56 57 57 57 57 58
55 56 57 56 56 55 55 55 54 54 49 46 44 44 46 46 48 47 47 49 53 53 53 53 53 54 54 55 55 55 55 55 56 56 56 56 56 56
53 54 54 53 52 51 51 51 52 52 49 41 42 44 44 44 45 46 46 46 48 52 52 52 52 52 53 53 53 53 53 53 53 53 54 54 54 54
52 50 51 50 50 49 49 49 49 49 47 41 40 41 42 44 44 43 46 47 46 50 51 51 51 51 51 51 50 50 50 51 51 50 51 51 51 51
51 49 50 49 47 47 47 47 46 46 46 42 39 42 42 43 42 43 43 42 45 48 49 49 49 49 49 49 49 48 48 48 48 48 48 48 49 49
49 48 48 47 47 46 45 44 44 43 44 41 40 40 41 42 41 39 37 38 35 41 43 44 46 47 47 47 47 46 46 46 47 47 47 47 47 48
43 44 45 46 47 46 44 42 42 41 40 40 39 39 37 37 38 37 34 31 31 32 32 33 33 33 35 44 44 45 45 45 46 47 46 46 47 47
38 41 42 45 46 48 47 46 43 37 35 37 36 36 36 36 35 34 29 26 28 32 31 31 31 31 32 33 44 45 44 44 45 45 45 45 46 46
37 37 39 42 42 42 46 45 46 46 43 38 36 36 33 33 31 29 30 27 28 30 30 28 30 30 31 37 45 44 43 44 44 45 45 45 44 44
39 39 39 38 38 38 36 34 33 34 37 39 37 34 34 33 34 33 32 30 29 30 29 24 28 29 29 30 43 43 43 43 43 44 44 43 43 43
38 39 39 38 42 41 33 31 31 33 42 42 41 42 41 41 37 32 29 29 26 28 29 27 26 26 27 28 30 42 42 43 44 44 44 43 44 43
36 37 41 39 43 43 33 30 31 31 32 33 33 35 37 39 40 33 30 26 24 23 28 24 23 23 19 26 28 28 29 39 40 41 41 42 42 32
34 34 36 42 43 44 38 31 31 31 35 29 29 29 29 30 30 30 30 26 20 19 29 23 13 18 16 20 24 27 27 28 28 30 36 38 40 38
33 34 35 42 42 43 39 38 40 37 30 30 29 28 28 27 27 29 29 28 27 25 27 21 13 14 9 13 19 24 22 24 26 28 27 32 37 38
35 36 38 41 41 39 41 41 42 30 30 28 27 27 27 27 26 27 27 26 24 26 27 19 19 14 11 10 13 18 21 22 23 19 19 21 23 26
38 35 38 38 38 35 36 37 31 30 29 29 28 27 26 25 25 24 21 20 19 21 27 24 27 26 19 20 14 15 19 19 18 19 20 20 22 25
34 32 31 30 30 30 31 31 30 31 29 28 27 27 28 27 26 22 21 18 17 17 22 26 30 28 25 22 21 22 19 26 28 20 19 17 22 26
33 30 30 29 29 30 30 30 30 32 29 28 27 28 28 26 24 20 19 19 18 19 16 18 23 26 27 24 30 22 27 26 26 20 21 22 23 25
33 29 29 29 29 29 29 28 28 29 28 28 25 27 27 26 28 22 21 20 18 17 15 15 16 22 20 18 23 34 24 21 19 20 22 21 22 25
33 30 29 29 29 29 28 28 27 27 28 27 27 27 26 25 23 22 22 22 20 15 15 12 14 15 17 16 14 18 31 16 17 14 18 23 26 32
32 31 31 30 29 29 28 27 27 26 26 26 27 26 26 25 26 24 25 28 25 18 18 17 22 31 21 21 21 20 23 32 28 17 16 17 21 22
32 32 31 30 30 30 29 28 26 28 27 27 26 27 27 27 27 26 25 23 26 25 23 21 17 19 19 21 22 21 18 23 29 32 33 30 20 20
33 33 32 31 31 30 30 29 28 28 28 28 27 27 27 25 27 27 25 25 25 24 24 21 19 18 19 21 23 22 21 20 22 24 24 32 33 34

GFSNE_sfc_temp_105.txt.gz
Temp
59 59 59 60 60 59 57 56 55 50 49 45 44 45 46 48 50 49 49 54 55 56 56 56 56 56 57 58 58 58 58 57 58 58 58 58 58 58
53 53 54 56 57 56 56 56 55 55 51 46 44 44 46 47 49 47 48 51 53 54 54 53 54 54 55 56 56 56 56 57 57 57 57 57 57 57
53 53 53 54 53 53 52 52 53 53 50 41 43 44 44 45 46 46 47 47 48 52 53 53 53 53 53 54 54 54 54 54 54 54 55 55 55 54
52 52 51 51 51 51 50 51 50 50 48 41 40 41 42 44 44 44 46 47 47 50 52 52 52 52 52 51 51 51 51 51 51 51 52 52 52 52
48 50 50 49 49 48 48 47 47 47 46 43 39 42 42 43 42 43 43 42 45 49 50 50 50 50 50 49 49 49 49 49 48 48 49 49 49 50
45 45 45 46 47 47 46 46 45 45 44 42 41 40 41 42 42 39 37 39 38 42 44 44 45 48 48 48 47 46 46 47 47 47 47 47 47 48
41 41 42 44 47 47 45 44 43 43 42 41 39 39 36 38 38 37 35 35 34 32 33 34 35 34 35 44 44 45 45 46 46 47 47 47 47 47
38 38 40 43 45 48 48 47 45 41 39 38 37 37 37 37 36 36 33 32 30 31 32 31 32 32 33 33 43 45 45 45 46 46 46 46 46 46
38 38 40 42 42 42 44 44 45 46 44 39 38 38 36 37 35 33 33 31 30 30 31 29 31 31 32 36 45 45 44 44 44 45 45 45 45 45
39 39 39 39 39 39 38 36 36 37 37 39 38 39 37 35 37 33 33 30 30 30 31 25 29 30 30 31 42 43 43 43 44 44 45 44 43 43
38 39 39 38 40 41 36 34 34 34 42 42 41 42 42 41 37 34 30 30 27 28 30 29 27 27 28 29 31 42 42 43 44 45 44 44 44 44
36 38 41 39 41 42 35 34 32 32 32 33 31 35 37 39 41 33 32 28 25 24 29 26 25 25 22 27 28 28 29 39 41 42 42 42 42 32
34 34 36 41 42 43 40 34 34 34 35 29 29 30 30 31 30 30 31 28 24 22 30 25 17 21 18 22 24 27 27 28 28 30 36 38 40 38
33 34 35 40 42 43 41 39 40 37 29 29 28 27 28 28 28 28 29 29 29 27 30 24 17 17 14 14 20 23 22 23 26 27 27 32 35 37
34 36 40 40 42 40 42 41 41 30 29 27 27 27 28 28 26 27 28 27 26 29 28 21 20 14 14 10 13 18 19 21 23 18 18 21 22 25
39 35 38 39 40 36 37 35 31 30 28 27 28 28 27 25 25 25 23 21 22 24 28 23 23 21 17 20 14 14 17 16 19 18 20 20 21 24
33 31 30 31 32 31 31 31 30 30 28 28 26 26 27 27 26 24 22 22 22 22 22 26 28 27 24 18 12 18 18 16 22 22 18 15 21 25
32 29 28 30 30 30 30 30 29 31 29 28 28 28 28 27 26 23 22 23 22 23 23 24 23 23 24 24 29 18 20 23 28 26 21 22 21 25
32 28 28 28 29 29 28 28 28 29 29 28 27 27 26 26 29 24 24 24 23 23 22 20 16 18 16 16 23 34 23 24 25 22 23 23 20 24
30 31 28 28 28 28 28 28 28 27 28 28 27 27 27 26 26 25 24 24 24 21 17 15 17 20 19 17 15 18 31 21 21 19 20 24 26 32
31 30 30 29 29 29 28 27 27 26 26 26 27 27 27 26 26 27 25 28 27 23 21 20 23 31 19 21 20 21 22 32 28 19 18 16 19 22
32 30 30 31 30 29 29 28 26 27 28 27 27 27 27 26 26 26 26 26 28 27 24 17 16 19 19 21 22 21 20 24 30 33 33 28 16 15
33 31 31 30 31 31 30 29 28 28 27 27 26 26 26 25 27 28 27 27 26 26 25 20 18 20 21 23 24 23 21 20 22 23 24 31 33 34

GFSNE_sfc_temp_108.txt.gz
Temp
58 58 58 58 59 59 59 58 55 53 50 48 45 46 47 48 50 50 51 55 56 56 57 57 56 56 57 58 58 57 57 57 58 59 59 59 59 59
51 52 54 53 54 54 56 56 56 55 53 47 45 45 47 47 50 48 49 52 54 55 54 54 55 55 55 56 57 57 57 57 58 58 58 58 58 57
51 53 53 53 51 51 52 52 53 53 52 42 43 44 45 45 46 47 47 47 50 53 53 53 53 54 54 55 55 56 56 56 56 56 57 57 56 55
48 50 51 51 49 50 50 50 50 51 49 44 41 42 43 45 45 44 46 48 47 51 52 53 53 53 52 52 52 52 52 53 53 54 54 54 53 53
45 45 47 47 46 47 48 47 47 47 47 43 40 42 42 44 42 43 43 43 46 50 51 51 51 51 50 50 50 50 50 49 50 50 51 51 51 51
42 42 41 42 43 46 46 46 46 45 45 43 41 40 41 42 42 39 37 40 39 43 45 45 47 49 49 49 48 47 47 48 48 48 48 48 48 49
39 40 40 43 46 47 45 44 44 43 43 41 40 39 38 38 38 38 36 35 35 36 36 36 35 35 38 45 45 46 46 47 47 48 48 48 47 48
37 38 38 42 43 47 48 48 46 42 40 39 38 38 38 38 37 37 34 33 32 34 35 32 34 33 35 34 44 45 46 46 46 47 47 46 46 47
36 36 39 41 42 42 43 43 44 45 46 41 39 39 38 37 37 34 34 33 33 32 32 30 31 32 33 36 44 45 45 44 45 46 46 45 45 45
35 36 37 38 39 40 38 37 37 38 39 40 39 40 40 39 39 37 35 32 32 32 32 27 30 31 32 32 42 44 44 44 44 45 45 45 44 44
36 39 39 38 41 42 36 35 35 35 41 43 42 42 43 42 39 36 33 33 30 29 30 30 28 28 30 31 32 43 43 43 44 44 46 44 44 44
34 37 40 41 42 43 36 34 33 34 34 35 34 34 35 39 41 33 32 30 25 25 30 28 26 27 26 29 30 30 31 40 43 45 45 45 44 34
31 32 35 40 42 42 40 34 34 35 36 32 32 30 30 31 31 31 32 26 23 24 31 26 22 24 23 25 27 29 29 30 30 31 37 38 40 37
34 31 32 40 41 42 41 40 40 39 32 31 30 28 27 26 28 29 30 30 28 28 32 27 21 22 20 20 23 25 25 26 28 28 28 33 36 37
35 36 40 41 41 40 42 41 41 33 31 30 29 24 28 28 26 26 28 28 27 29 28 25 23 18 19 17 19 21 22 24 24 19 18 22 24 26
39 35 36 38 40 37 36 36 33 32 30 27 24 25 26 23 25 26 23 23 22 22 28 24 24 23 20 19 17 18 21 20 19 19 20 20 22 24
36 30 29 29 29 30 30 30 30 31 28 26 26 25 26 26 27 22 23 22 21 22 23 26 29 27 23 21 18 21 21 19 22 21 19 16 22 25
35 31 27 27 27 29 29 29 29 31 28 28 28 27 26 25 25 24 22 19 20 22 23 25 26 26 26 25 28 19 18 17 21 28 25 22 23 26
34 31 26 27 27 27 27 27 26 28 27 27 25 25 26 26 28 24 23 22 21 23 24 24 22 22 17 16 23 33 20 19 24 25 23 23 21 25
32 32 30 27 27 26 27 26 26 25 27 28 27 26 26 26 25 23 25 24 24 24 23 22 22 21 20 19 15 17 32 18 20 19 21 25 27 32
32 31 29 28 27 26 26 26 27 25 26 27 27 27 26 26 26 27 26 29 28 25 23 23 23 31 23 22 20 19 22 32 27 21 19 19 20 23
33 32 31 30 29 28 26 27 26 27 27 25 25 27 27 27 27 27 27 25 28 27 26 25 21 23 21 22 21 18 18 24 31 34 33 29 17 14
33 33 32 31 31 29 29 28 27 28 27 28 27 25 25 25 27 28 28 27 28 27 28 24 21 22 23 23 24 22 20 20 23 23 26 33 34 34

GFSNE_sfc_temp_111.txt.gz
Temp
60 59 59 59 59 60 59 58 56 53 54 55 53 51 52 52 51 53 52 55 57 58 58 58 57 58 58 58 58 58 59 59 59 59 60 61 61 60
57 56 56 57 58 58 59 58 57 55 52 55 53 50 51 50 51 51 51 52 55 56 56 55 56 56 56 57 57 56 56 57 57 59 60 60 60 58
56 57 56 58 56 57 57 57 55 54 52 46 47 47 46 47 48 48 48 50 52 54 54 54 54 55 55 56 56 57 57 58 58 59 59 59 58 57
53 54 55 54 54 55 55 54 53 52 50 49 44 44 46 47 48 46 47 48 49 52 54 54 54 54 54 53 54 54 54 55 56 56 57 57 55 55
50 50 50 50 50 51 51 51 51 49 48 45 42 43 43 45 44 44 44 45 47 50 53 53 52 52 52 51 52 52 51 51 52 53 53 53 53 53
47 47 47 47 48 49 49 49 48 48 47 45 42 41 42 44 44 40 38 41 41 45 47 48 49 50 50 50 50 49 49 49 50 50 50 50 50 52
45 45 46 46 46 48 48 48 48 47 46 44 41 41 39 39 40 40 37 36 37 39 41 40 41 43 45 49 47 47 47 48 49 49 49 49 49 50
43 44 44 44 46 47 48 48 48 46 44 42 40 39 40 40 39 38 35 34 34 40 40 37 39 40 42 45 45 46 47 47 48 48 48 48 48 48
40 41 43 44 44 45 45 44 43 44 45 45 42 42 41 41 39 37 36 38 37 35 38 37 39 41 41 42 44 46 46 46 47 47 47 46 46 47
41 41 42 43 43 43 42 41 38 39 40 41 41 43 42 42 41 40 39 35 34 34 37 36 38 39 40 42 41 46 45 45 45 46 46 46 45 45
41 42 42 42 42 43 39 38 37 37 41 43 43 43 43 43 41 38 35 35 32 33 35 38 35 36 37 38 41 45 44 44 45 45 46 46 45 44
40 41 41 42 43 43 39 39 37 36 36 36 36 37 38 41 41 38 37 34 32 32 36 36 33 34 33 36 37 39 41 42 44 46 46 45 44 43
39 38 40 41 42 43 42 39 38 38 37 35 34 34 34 35 34 35 37 35 33 34 36 35 31 32 32 32 34 35 37 38 39 40 41 42 43 42
39 38 38 40 41 42 43 41 41 40 35 34 33 32 32 33 33 33 34 34 36 34 37 33 31 32 31 31 32 32 33 35 36 37 37 37 39 41
38 39 40 41 41 41 42 42 42 36 34 32 32 31 32 33 31 31 31 31 31 32 32 31 32 28 31 32 30 30 30 31 33 32 32 33 36 37
41 38 39 40 40 39 39 39 37 37 35 34 33 32 31 31 31 31 30 30 31 30 30 30 30 30 29 30 30 29 30 29 29 30 31 31 32 34
37 35 34 35 35 36 35 36 36 35 34 34 33 31 31 31 30 30 30 29 30 29 29 30 31 31 31 29 27 29 29 28 29 30 29 29 32 34
37 34 33 33 33 34 34 34 34 35 33 33 32 32 31 30 30 29 29 29 29 28 29 29 30 29 30 31 32 29 28 28 29 30 30 26 29 35
35 33 32 32 32 33 33 33 33 33 32 32 32 31 31 30 31 29 28 29 28 29 29 29 29 28 26 27 30 33 29 28 29 29 30 27 29 33
34 34 32 32 31 32 33 32 32 32 31 31 31 31 30 30 29 29 28 28 28 29 28 28 27 27 26 27 28 30 32 28 29 28 28 30 32 34
34 33 33 33 33 32 32 32 31 31 30 30 30 30 30 30 29 30 30 30 30 29 27 28 29 33 30 28 25 27 30 32 31 29 28 28 28 30
34 34 33 33 32 32 32 31 30 30 30 30 30 30 30 30 30 30 30 29 31 30 29 32 30 30 26 26 26 28 28 30 33 33 33 33 28 26
34 34 34 33 33 32 32 31 30 31 30 30 30 29 29 28 30 31 31 30 31 30 31 29 27 28 27 26 27 27 26 27 29 29 30 35 35 34

GFSNE_sfc_temp_114.txt.gz
Temp
65 64 63 63 61 62 62 61 59 56 58 66 63 60 60 59 57 58 58 55 57 58 58 58 58 58 58 58 59 59 61 63 62 61 62 62 63 63
63 63 61 61 62 63 62 60 59 56 54 63 62 59 58 56 55 57 57 53 55 55 55 55 56 57 57 57 57 57 57 58 60 60 60 61 61 60
62 62 61 62 62 62 61 60 57 58 54 54 55 54 50 53 52 53 52 53 54 54 54 54 55 55 56 56 56 56 57 57 57 58 58 60 59 58
60 61 60 59 60 59 60 58 56 57 52 51 50 48 49 51 51 49 48 50 51 52 53 54 54 54 54 54 54 54 55 56 56 57 58 58 57 57
58 58 57 57 56 55 55 53 54 53 53 50 48 46 46 47 45 45 45 45 46 48 52 53 53 53 52 52 52 52 52 52 54 55 56 55 55 55
54 54 54 54 54 54 54 55 53 52 51 48 46 45 46 46 45 42 40 42 41 44 46 49 51 51 51 51 51 50 50 50 51 52 52 52 52 53
51 51 51 49 46 50 52 52 50 49 50 47 44 43 42 41 41 40 38 37 38 39 40 40 43 46 48 49 47 47 48 49 50 50 50 50 50 52
49 50 50 46 48 47 48 47 48 48 45 44 43 41 43 42 40 38 36 35 34 39 37 38 42 42 43 47 47 47 47 48 49 49 49 49 49 50
46 47 48 49 48 50 48 46 46 44 44 43 42 44 43 44 40 37 37 37 37 37 40 39 39 40 43 47 45 46 47 47 48 48 48 48 48 48
47 47 48 49 49 47 47 46 46 46 43 42 42 43 44 44 42 40 39 36 35 35 37 35 39 41 44 46 43 46 46 46 46 47 47 46 46 47
47 48 48 48 45 44 44 41 45 45 43 42 41 42 44 44 42 38 35 35 33 34 35 36 37 40 41 43 45 46 46 45 45 46 46 46 46 46
47 47 42 45 44 44 44 43 43 44 42 39 38 38 39 41 40 37 37 34 34 33 35 35 35 38 34 40 42 45 44 44 45 45 46 46 45 45
46 45 46 42 43 43 44 42 42 44 41 40 38 36 37 36 35 36 36 35 34 35 38 38 35 36 35 34 37 39 41 41 42 44 46 45 45 44
45 45 44 41 42 42 43 43 42 42 42 39 36 36 35 35 35 35 35 36 37 35 38 35 33 35 34 34 33 35 37 39 40 40 41 41 42 42
42 43 42 41 42 42 42 43 42 43 40 37 36 35 35 35 33 33 34 34 33 34 34 32 34 33 34 35 34 34 33 34 37 36 36 37 38 40
43 42 41 41 41 42 41 42 43 43 41 39 38 37 36 34 34 35 34 34 34 33 32 32 32 32 32 34 34 33 35 32 34 34 34 35 36 37
42 39 38 38 36 38 40 41 41 41 39 39 37 36 35 35 34 34 33 32 32 32 32 32 33 34 34 32 31 34 34 32 33 33 32 32 34 36
38 38 37 36 34 36 39 39 40 39 39 38 37 36 34 33 33 32 32 32 32 32 32 32 31 31 32 33 35 33 33 32 32 32 32 31 32 37
37 36 34 34 33 33 36 38 37 38 34 35 35 34 34 33 33 32 32 32 31 32 32 32 31 31 30 31 32 35 32 31 31 31 32 31 32 35
36 36 35 34 34 33 34 36 37 37 35 34 34 33 33 32 32 32 32 31 32 32 32 31 31 31 30 31 31 32 34 32 31 31 31 33 35 36
36 35 36 35 34 34 36 37 36 35 34 33 33 33 33 32 32 33 33 33 33 32 30 31 32 35 32 31 28 30 32 33 34 32 32 30 30 32
35 35 35 35 34 34 33 34 34 34 33 33 33 33 33 33 32 32 33 32 32 33 32 34 33 32 29 28 28 31 31 32 33 34 35 34 30 28
34 34 35 35 35 34 33 33 32 33 33 33 33 33 33 32 33 34 34 33 33 32 33 32 32 31 30 29 29 30 31 30 31 30 31 35 35 35

GFSNE_sfc_temp_117.txt.gz
Temp
66 65 65 64 64 64 63 61 59 55 57 62 61 60 60 59 57 58 58 55 57 58 58 58 57 57 57 58 59 59 59 63 65 64 63 62 62 64
63 63 63 62 62 62 61 60 59 55 53 61 60 58 58 57 56 56 56 53 55 55 55 55 55 55 56 57 57 58 58 59 62 63 62 62 62 62
61 62 61 62 60 60 60 59 57 55 52 55 54 55 54 54 53 53 51 52 53 54 54 54 55 55 56 56 56 57 57 57 58 58 60 60 59 58
61 61 60 60 59 59 59 58 54 54 51 49 51 50 50 52 52 49 48 50 50 52 53 53 54 55 55 54 54 54 55 56 56 57 57 57 57 57
60 59 59 58 57 55 54 53 53 52 51 49 48 47 47 47 46 45 46 45 47 48 52 53 53 53 53 52 53 52 52 53 54 54 55 56 55 55
57 57 57 56 55 55 53 54 52 51 51 50 48 46 45 46 45 43 40 42 41 45 47 49 50 51 51 51 51 50 50 51 53 53 52 52 53 55
51 53 51 48 47 48 51 51 50 49 48 45 44 44 43 41 41 41 39 38 38 39 38 40 42 43 46 49 47 48 49 50 50 51 51 51 51 53
50 50 51 46 48 48 48 47 46 46 45 44 42 41 42 42 41 39 36 35 35 38 37 37 39 39 42 44 48 48 48 49 49 50 50 50 50 51
47 47 48 50 47 50 48 47 46 45 44 43 42 43 42 44 40 37 36 35 36 36 37 35 38 37 40 45 46 47 48 48 48 49 49 49 49 50
48 48 48 49 48 47 47 45 45 46 44 44 42 42 41 42 42 40 38 36 35 35 37 34 36 36 39 41 46 47 47 47 47 48 48 48 47 48
48 49 48 48 46 44 44 39 43 44 43 42 42 42 43 44 44 38 34 34 32 33 34 35 34 35 37 39 39 45 46 46 46 47 47 47 46 47
47 48 44 47 45 44 43 43 38 41 39 38 38 38 39 39 39 36 35 33 33 32 34 34 33 33 32 36 36 38 39 45 45 45 46 47 46 40
45 44 46 44 44 44 44 42 40 41 41 37 37 36 36 35 34 35 35 34 33 33 36 35 33 33 34 29 32 36 36 36 37 40 46 46 46 43
44 45 44 43 42 42 42 44 43 42 38 36 35 34 34 34 33 33 33 34 34 33 35 34 33 31 31 27 27 30 32 36 36 35 36 44 45 45
44 43 44 42 42 42 42 43 43 38 36 34 33 32 32 33 32 33 33 33 32 33 33 31 33 32 32 31 27 28 30 32 32 32 32 32 33 35
43 41 42 42 42 42 40 40 38 38 36 34 33 33 32 31 30 31 31 33 32 31 30 28 28 30 28 30 29 29 30 26 30 31 31 31 32 32
42 37 36 35 36 36 36 37 37 36 34 34 33 32 32 31 30 30 29 32 29 31 30 28 30 31 29 27 25 29 30 29 29 30 30 29 31 32
38 36 36 36 34 34 34 35 36 37 34 34 33 32 31 29 29 31 28 26 26 28 28 31 27 27 27 30 34 28 28 28 29 30 29 28 30 33
35 35 35 35 34 33 33 34 34 34 32 32 32 31 30 32 32 28 29 26 26 28 29 29 27 25 24 24 27 36 27 28 30 29 30 30 29 31
36 36 35 35 34 33 33 33 34 34 32 32 31 30 29 29 31 30 28 25 26 27 28 29 27 27 26 27 27 28 35 30 29 29 29 31 32 37
36 36 36 35 34 34 34 34 34 34 33 32 31 30 30 30 29 29 28 33 31 26 26 28 30 36 29 29 25 26 27 34 33 30 29 28 27 29
35 35 34 35 34 34 34 34 34 33 33 33 32 33 32 31 29 28 29 28 29 29 29 27 28 30 28 27 26 27 26 28 33 35 36 34 27 24
33 33 34 34 34 34 33 33 33 33 33 33 32 32 33 31 32 30 29 29 28 28 28 27 29 30 28 27 27 27 27 27 29 28 29 35 36 36